LU6FG Weather Reports


time (UTC)temp
C
wind
direction
speed
KPH
gust
KPH
rain 1hr
cm
rain 24hr
cm
rain mn
cm
humidity
%
barometer
mb
20260505173508 25 29 4.8 6.4 0.00 0.00 0.00 83 1010.8
20260505173408 25 28 4.8 6.4 0.00 0.00 0.00 83 1010.8
20260505173308 25 30 3.2 6.4 0.00 0.00 0.00 84 1010.9
20260505173208 25 32 3.2 6.4 0.00 0.00 0.00 84 1010.9
20260505173108 25 35 3.2 6.4 0.00 0.00 0.00 84 1010.9
20260505173009 25 37 3.2 6.4 0.00 0.00 0.00 84 1010.8
20260505172908 25 39 3.2 6.4 0.00 0.00 0.00 84 1010.8
20260505172830 25 39 3.2 6.4 0.00 0.00 0.00 84 1010.8
20260505172708 25 37 3.2 3.2 0.00 0.00 0.00 85 1010.9
20260505172608 25 33 3.2 6.4 0.00 0.00 0.00 85 1010.9
20260505172508 25 31 1.6 6.4 0.00 0.00 0.00 85 1011.0
20260505172408 25 28 1.6 6.4 0.00 0.00 0.00 85 1011.0
20260505172329 25 25 1.6 6.4 0.00 0.00 0.00 85 1010.9
20260505172209 25 22 3.2 6.4 0.00 0.00 0.00 85 1010.9
20260505172108 25 23 0.0 6.4 0.00 0.00 0.00 85 1010.9
20260505172008 25 25 0.0 6.4 0.00 0.00 0.00 85 1010.9
20260505171908 25 24 0.0 6.4 0.00 0.00 0.00 85 1011.0
20260505171808 25 24 3.2 6.4 0.00 0.00 0.00 85 1010.8
20260505171708 25 23 3.2 6.4 0.00 0.00 0.00 85 1010.8
20260505171608 25 26 3.2 6.4 0.00 0.00 0.00 85 1011.1
20260505171508 25 28 1.6 3.2 0.00 0.00 0.00 86 1011.0
20260505171408 25 31 1.6 3.2 0.00 0.00 0.00 86 1011.0
20260505171330 25 33 3.2 3.2 0.00 0.00 0.00 86 1010.9
20260505171208 25 36 1.6 3.2 0.00 0.00 0.00 86 1010.8
20260505171108 25 37 1.6 3.2 0.00 0.00 0.00 86 1010.9
20260505171029 25 37 1.6 3.2 0.00 0.00 0.00 86 1010.9
20260505170908 24 39 3.2 3.2 0.00 0.00 0.00 86 1010.9
20260505170808 24 42 1.6 3.2 0.00 0.00 0.00 86 1010.9
20260505170708 24 45 1.6 3.2 0.00 0.00 0.00 86 1010.8
20260505170629 24 45 1.6 3.2 0.00 0.00 0.00 86 1010.8
20260505170508 24 45 1.6 6.4 0.00 0.00 0.00 87 1010.8
20260505170408 24 43 3.2 6.4 0.00 0.00 0.00 86 1011.0
20260505170308 24 44 3.2 6.4 0.00 0.00 0.00 87 1011.1
20260505170230 24 45 3.2 6.4 0.00 0.00 0.00 87 1011.1
20260505170109 24 45 3.2 6.4 0.00 0.00 0.00 87 1011.1
20260505170009 24 42 1.6 6.4 0.00 0.00 0.00 87 1011.1
20260505165908 24 39 1.6 6.4 0.00 0.00 0.00 87 1011.1
20260505165808 24 36 1.6 6.4 0.00 0.00 0.00 87 1011.0
20260505165730 24 35 1.6 6.4 0.00 0.00 0.00 87 1011.0
20260505165608 24 32 3.2 6.4 0.00 0.00 0.00 87 1010.9
20260505165508 24 31 1.6 6.4 0.00 0.00 0.00 88 1010.9
20260505165429 24 31 1.6 6.4 0.00 0.00 0.00 88 1010.9
20260505165308 24 28 3.2 6.4 0.00 0.00 0.00 88 1010.8
20260505165208 24 25 3.2 9.7 0.00 0.00 0.00 88 1010.9
20260505165108 24 25 3.2 9.7 0.00 0.00 0.00 88 1010.8
20260505165008 24 25 4.8 11.3 0.00 0.00 0.00 88 1010.9
20260505164908 24 23 4.8 11.3 0.00 0.00 0.00 88 1010.9
20260505164808 24 23 3.2 11.3 0.00 0.00 0.00 88 1011.2
20260505164708 23 25 3.2 11.3 0.00 0.00 0.00 88 1011.1
20260505164608 23 28 3.2 11.3 0.00 0.00 0.00 88 1011.1
20260505164508 23 27 4.8 11.3 0.00 0.00 0.00 88 1011.1
20260505164429 23 26 3.2 11.3 0.00 0.00 0.00 88 1011.2
20260505164308 23 26 3.2 11.3 0.00 0.00 0.00 88 1011.4
20260505164208 23 25 6.4 11.3 0.00 0.00 0.00 88 1011.2
20260505164108 23 24 4.8 11.3 0.00 0.00 0.00 88 1011.3
20260505164029 23 23 6.4 11.3 0.00 0.00 0.00 88 1011.4
20260505163908 23 26 4.8 11.3 0.00 0.00 0.00 88 1011.4
20260505163808 23 26 4.8 11.3 0.00 0.00 0.00 88 1011.4
20260505163708 23 24 6.4 11.3 0.00 0.00 0.00 88 1011.4
20260505163608 23 20 6.4 11.3 0.00 0.00 0.00 88 1011.4
20260505163509 23 18 4.8 11.3 0.00 0.00 0.00 89 1011.2
20260505163430 23 17 4.8 11.3 0.00 0.00 0.00 89 1011.2
20260505163308 23 15 6.4 9.7 0.00 0.00 0.00 89 1011.3
20260505163209 23 16 4.8 6.4 0.00 0.00 0.00 89 1011.5
20260505163108 23 16 3.2 6.4 0.00 0.00 0.00 89 1011.4
20260505163009 23 14 3.2 6.4 0.00 0.00 0.00 89 1011.3
20260505162909 23 11 3.2 6.4 0.00 0.00 0.00 89 1011.4
20260505162830 23 10 3.2 6.4 0.00 0.00 0.00 89 1011.4
20260505162709 23 14 3.2 6.4 0.00 0.00 0.00 89 1011.3
20260505162608 23 12 3.2 6.4 0.00 0.00 0.00 89 1011.5
20260505162508 23 15 0.0 3.2 0.00 0.00 0.00 90 1011.5
20260505162408 23 12 0.0 3.2 0.00 0.00 0.00 90 1011.6
20260505162330 23 14 1.6 6.4 0.00 0.00 0.00 90 1011.5
20260505162208 23 21 0.0 6.4 0.00 0.00 0.00 90 1011.7
20260505162108 23 21 1.6 6.4 0.00 0.00 0.00 90 1011.6
20260505162029 23 25 0.0 6.4 0.00 0.00 0.00 90 1011.7
20260505161909 23 22 3.2 6.4 0.00 0.00 0.00 90 1011.6
20260505161808 23 25 1.6 6.4 0.00 0.00 0.00 90 1011.5
20260505161708 23 27 3.2 6.4 0.00 0.00 0.00 90 1011.6
20260505161629 23 30 3.2 9.7 0.00 0.00 0.00 90 1011.6
20260505161529 23 33 3.2 9.7 0.00 0.00 0.00 90 1011.5
20260505161408 23 35 3.2 9.7 0.00 0.00 0.00 90 1011.8
20260505161330 23 36 3.2 9.7 0.00 0.00 0.00 91 1011.7
20260505161208 23 35 4.8 9.7 0.00 0.00 0.00 90 1011.6
20260505161109 23 34 6.4 9.7 0.00 0.00 0.00 91 1011.7
20260505161008 23 31 3.2 9.7 0.00 0.00 0.00 91 1011.7
20260505160909 23 32 3.2 9.7 0.00 0.00 0.00 91 1011.6
20260505160830 23 31 4.8 9.7 0.00 0.00 0.00 91 1011.6
20260505160708 23 29 6.4 9.7 0.00 0.00 0.00 91 1011.6
20260505160630 23 29 6.4 11.3 0.00 0.00 0.00 91 1011.6
20260505160508 22 25 4.8 11.3 0.00 0.00 0.00 91 1011.8
20260505160408 22 26 3.2 11.3 0.00 0.00 0.00 91 1011.7
20260505160308 22 25 4.8 11.3 0.00 0.00 0.00 91 1011.7
20260505160208 22 26 6.4 11.3 0.00 0.00 0.00 91 1011.9
20260505160108 22 26 3.2 11.3 0.00 0.00 0.00 91 1011.8
20260505153309 22 35 3.2 11.3 0.00 0.00 0.00 92 1011.9
20260505153208 22 35 6.4 11.3 0.00 0.00 0.00 92 1011.8
20260505153108 22 34 6.4 11.3 0.00 0.00 0.00 92 1011.9
20260505153009 22 36 6.4 11.3 0.00 0.00 0.00 92 1012.0
20260505152908 22 35 6.4 11.3 0.00 0.00 0.00 92 1012.0
20260505152829 22 34 6.4 9.7 0.00 0.00 0.00 93 1012.0
20260505152708 22 37 1.6 6.4 0.00 0.00 0.00 93 1011.9
20260505152608 22 40 1.6 6.4 0.00 0.00 0.00 93 1011.9
20260505152508 22 43 3.2 6.4 0.00 0.00 0.00 93 1012.1
20260505152408 22 45 4.8 9.7 0.00 0.00 0.00 93 1012.1
20260505152308 22 42 3.2 9.7 0.00 0.00 0.00 93 1012.1
20260505152230 22 41 3.2 11.3 0.00 0.00 0.00 93 1012.1
20260505152108 22 38 3.2 11.3 0.00 0.00 0.00 93 1011.9
20260505152009 22 35 3.2 11.3 0.00 0.00 0.00 93 1012.0
20260505151929 22 32 3.2 11.3 0.00 0.00 0.00 93 1012.0
20260505151831 22 28 3.2 11.3 0.00 0.00 0.00 93 1011.8
20260505151708 22 24 4.8 11.3 0.00 0.00 0.00 93 1011.8
20260505151609 22 22 4.8 11.3 0.00 0.00 0.00 93 1012.0
20260505151508 22 17 4.8 11.3 0.00 0.00 0.00 93 1011.8
20260505151408 22 15 4.8 11.3 0.00 0.00 0.00 93 1012.0
20260505151308 22 16 3.2 11.3 0.00 0.00 0.00 93 1012.0
20260505151208 22 11 4.8 11.3 0.00 0.00 0.00 93 1012.1
20260505151108 22 12 3.2 9.7 0.00 0.00 0.00 93 1012.1
20260505151008 22 9 3.2 9.7 0.00 0.00 0.00 93 1012.0
20260505150908 22 10 4.8 9.7 0.00 0.00 0.00 93 1012.0
20260505150808 22 13 4.8 9.7 0.00 0.00 0.00 93 1012.1
20260505150730 22 13 4.8 9.7 0.00 0.00 0.00 93 1012.1
20260505150608 22 12 3.2 9.7 0.00 0.00 0.00 92 1012.0
20260505150508 22 13 3.2 11.3 0.00 0.00 0.00 92 1012.1
20260505150408 22 14 3.2 11.3 0.00 0.00 0.00 92 1012.2
20260505150330 22 12 3.2 11.3 0.00 0.00 0.00 92 1012.0
20260505150208 22 12 4.8 11.3 0.00 0.00 0.00 92 1012.0
20260505150108 22 13 4.8 11.3 0.00 0.00 0.00 92 1012.0
20260505140608 21 9 3.2 6.4 0.00 0.00 0.00 90 1012.7
20260505140508 21 7 3.2 6.4 0.00 0.00 0.00 90 1012.7
20260505140408 21 4 4.8 6.4 0.00 0.00 0.00 90 1012.6
20260505140330 21 4 4.8 9.7 0.00 0.00 0.00 90 1012.9
20260505140208 21 5 3.2 9.7 0.00 0.00 0.00 91 1012.7
20260505140108 21 7 3.2 9.7 0.00 0.00 0.00 91 1012.8
20260505130308 20 16 3.2 9.7 0.00 0.00 0.00 95 1012.8
20260505130208 19 15 3.2 9.7 0.00 0.00 0.00 95 1012.9
20260505130108 19 15 1.6 9.7 0.00 0.00 0.00 95 1012.9
20260505125008 19 31 3.2 9.7 0.00 0.00 0.00 96 1012.8
20260505124908 19 31 3.2 9.7 0.00 0.00 0.00 96 1012.7
20260505124829 19 31 3.2 9.7 0.00 0.00 0.00 96 1012.6
20260505124708 19 29 3.2 9.7 0.00 0.00 0.00 96 1012.6
20260505124630 19 29 3.2 9.7 0.00 0.00 0.00 96 1012.6
20260505124508 19 27 4.8 9.7 0.00 0.00 0.00 96 1012.6
20260505124408 19 30 3.2 9.7 0.00 0.00 0.00 96 1012.6
20260505124308 19 28 4.8 6.4 0.00 0.00 0.00 96 1012.8
20260505124208 19 24 4.8 6.4 0.00 0.00 0.00 96 1012.8
20260505124108 19 23 3.2 9.7 0.00 0.00 0.00 96 1012.8
20260505124008 19 23 3.2 9.7 0.00 0.00 0.00 96 1012.7
20260505123929 19 25 3.2 9.7 0.00 0.00 0.00 96 1012.6
20260505123808 19 23 3.2 9.7 0.00 0.00 0.00 96 1012.9
20260505123708 19 23 4.8 9.7 0.00 0.00 0.00 96 1012.7
20260505123608 19 25 3.2 9.7 0.00 0.00 0.00 96 1012.8
20260505123508 18 25 4.8 9.7 0.00 0.00 0.00 96 1012.7
20260505123408 18 23 4.8 9.7 0.00 0.00 0.00 96 1012.7
20260505123330 18 25 3.2 9.7 0.00 0.00 0.00 96 1012.7
20260505123208 18 30 3.2 9.7 0.00 0.00 0.00 96 1012.5
20260505123130 18 33 6.4 9.7 0.00 0.00 0.00 96 1012.7
20260505123009 18 35 4.8 9.7 0.00 0.00 0.00 96 1012.7
20260505122908 18 34 3.2 9.7 0.00 0.00 0.00 96 1012.5
20260505122808 18 37 3.2 9.7 0.00 0.00 0.00 96 1012.7
20260505122708 18 39 3.2 9.7 0.00 0.00 0.00 96 1012.7
20260505122608 18 39 3.2 9.7 0.00 0.00 0.00 96 1012.7
20260505122508 18 39 3.2 9.7 0.00 0.00 0.00 96 1012.7
20260505122430 18 39 3.2 9.7 0.00 0.00 0.00 96 1012.7
20260505122308 18 36 6.4 9.7 0.00 0.00 0.00 96 1012.7
20260505122208 18 34 6.4 9.7 0.00 0.00 0.00 96 1012.6
20260505122108 18 31 3.2 6.4 0.00 0.00 0.00 96 1012.6
20260505122008 18 28 4.8 6.4 0.00 0.00 0.00 96 1012.7
20260505121929 18 28 3.2 6.4 0.00 0.00 0.00 96 1012.4
20260505121808 18 29 4.8 6.4 0.00 0.00 0.00 96 1012.5
20260505121729 18 28 3.2 6.4 0.00 0.00 0.00 96 1012.5
20260505121608 18 29 3.2 6.4 0.00 0.00 0.00 96 1012.3
20260505121529 18 28 3.2 6.4 0.00 0.00 0.00 96 1012.5
20260505121408 18 30 4.8 6.4 0.00 0.00 0.00 96 1012.5
20260505121330 18 30 1.6 6.4 0.00 0.00 0.00 96 1012.5
20260505121230 18 30 3.2 6.4 0.00 0.00 0.00 96 1012.3
20260505121108 18 30 3.2 9.7 0.00 0.00 0.00 96 1012.4
20260505121009 18 32 3.2 9.7 0.00 0.00 0.00 96 1012.4
20260505120908 18 31 4.8 9.7 0.00 0.00 0.00 96 1012.5
20260505120808 18 29 3.2 9.7 0.00 0.00 0.00 96 1012.5
20260505120708 18 29 4.8 9.7 0.00 0.00 0.00 96 1012.5
20260505120608 18 29 1.6 9.7 0.00 0.00 0.00 96 1012.7
20260505120531 18 30 3.2 9.7 0.00 0.00 0.00 96 1012.4
20260505120408 18 31 3.2 9.7 0.00 0.00 0.00 96 1012.5
20260505120308 18 32 3.2 9.7 0.00 0.00 0.00 96 1012.5
20260505120224 18 32 3.2 9.7 0.00 0.00 0.00 96 1012.4
20260505120129 18 32 6.4 9.7 0.00 0.00 0.00 96 1012.4
20260505120009 18 31 3.2 6.4 0.00 0.00 0.00 96 1012.3
20260505115908 18 30 3.2 6.4 0.00 0.00 0.00 96 1012.5
20260505115808 18 30 3.2 6.4 0.00 0.00 0.00 96 1012.3
20260505115729 18 30 3.2 6.4 0.00 0.00 0.00 96 1012.4
20260505115608 18 28 3.2 6.4 0.00 0.00 0.00 96 1012.4
20260505115508 18 28 3.2 6.4 0.00 0.00 0.00 96 1012.3
20260505115408 18 25 3.2 9.7 0.00 0.00 0.00 96 1012.4
20260505115308 18 24 3.2 9.7 0.00 0.00 0.00 96 1012.4
20260505115208 18 24 3.2 9.7 0.00 0.00 0.00 96 1012.3
20260505115108 18 24 3.2 9.7 0.00 0.00 0.00 96 1012.4
20260505115008 18 24 3.2 9.7 0.00 0.00 0.00 96 1012.3
20260505114908 18 24 3.2 9.7 0.00 0.00 0.00 96 1012.5
20260505114808 18 25 3.2 9.7 0.00 0.00 0.00 96 1012.3
20260505114708 18 27 3.2 9.7 0.00 0.00 0.00 96 1012.2
20260505114608 18 28 3.2 9.7 0.00 0.00 0.00 96 1011.9
20260505114508 18 28 3.2 9.7 0.00 0.00 0.00 96 1012.1
20260505114429 18 28 4.8 9.7 0.00 0.00 0.00 96 1012.1
20260505114308 18 29 3.2 6.4 0.00 0.00 0.00 96 1012.1
20260505114208 18 31 3.2 6.4 0.00 0.00 0.00 96 1012.1
20260505114108 18 31 3.2 6.4 0.00 0.00 0.00 96 1012.1
20260505114008 18 33 3.2 6.4 0.00 0.00 0.00 96 1012.1
20260505113908 18 36 3.2 6.4 0.00 0.00 0.00 96 1012.0
20260505113829 18 37 3.2 6.4 0.00 0.00 0.00 96 1012.0
20260505113730 18 38 3.2 6.4 0.00 0.00 0.00 96 1011.9
20260505113608 18 35 3.2 6.4 0.00 0.00 0.00 96 1012.1
20260505113508 18 33 3.2 6.4 0.00 0.00 0.00 96 1012.0
20260505113408 18 33 3.2 6.4 0.00 0.00 0.00 96 1012.0
20260505113308 18 35 3.2 6.4 0.00 0.00 0.00 96 1012.0
20260505113208 18 34 3.2 6.4 0.00 0.00 0.00 96 1012.0
20260505113108 18 35 3.2 6.4 0.00 0.00 0.00 96 1011.9
20260505113009 18 35 3.2 6.4 0.00 0.00 0.00 96 1012.0
20260505112908 18 35 3.2 6.4 0.00 0.00 0.00 96 1011.9
20260505112808 18 33 3.2 6.4 0.00 0.00 0.00 96 1012.0
20260505112708 18 34 3.2 6.4 0.00 0.00 0.00 96 1011.9
20260505112630 18 37 3.2 6.4 0.00 0.00 0.00 96 1011.9
20260505112508 18 43 3.2 6.4 0.00 0.00 0.00 96 1011.9
20260505112408 18 47 3.2 6.4 0.00 0.00 0.00 96 1011.9
20260505112308 18 48 1.6 6.4 0.00 0.00 0.00 96 1011.8
20260505112208 18 50 3.2 6.4 0.00 0.00 0.00 96 1011.9
20260505112129 18 50 3.2 6.4 0.00 0.00 0.00 96 1011.7
20260505112008 18 52 1.6 6.4 0.00 0.00 0.00 96 1011.7
20260505111908 18 53 3.2 6.4 0.00 0.00 0.00 96 1011.9
20260505111830 18 54 3.2 6.4 0.00 0.00 0.00 96 1011.9
20260505111708 18 53 3.2 6.4 0.00 0.00 0.00 96 1011.6
20260505111608 18 50 3.2 6.4 0.00 0.00 0.00 96 1011.6
20260505111508 18 45 0.0 3.2 0.00 0.00 0.00 96 1011.6
20260505111408 18 45 0.0 3.2 0.00 0.00 0.00 96 1011.6
20260505111308 18 45 0.0 3.2 0.00 0.00 0.00 96 1011.6
20260505111208 18 45 3.2 3.2 0.00 0.00 0.00 96 1011.7
20260505111108 18 45 3.2 3.2 0.00 0.00 0.00 96 1011.8
20260505111008 18 45 1.6 3.2 0.00 0.00 0.00 96 1011.8
20260505110929 18 45 1.6 3.2 0.00 0.00 0.00 96 1011.8
20260505110808 18 45 0.0 3.2 0.00 0.00 0.00 96 1011.8
20260505110708 17 0 0.0 0.0 0.00 0.00 0.00 96 1011.9
20260505110608 17 0 0.0 0.0 0.00 0.00 0.00 96 1011.9
20260505110508 17 22 0.0 3.2 0.00 0.00 0.00 96 1012.0
20260505110429 17 22 0.0 3.2 0.00 0.00 0.00 96 1011.9
20260505110308 17 22 0.0 3.2 0.00 0.00 0.00 96 1012.1
20260505110229 17 22 0.0 3.2 0.00 0.00 0.00 96 1012.1
20260505110130 17 22 0.0 3.2 0.00 0.00 0.00 96 1012.0
20260505102208 17 0 0.0 0.0 0.00 0.00 0.00 95 1011.6
20260505102108 17 0 0.0 0.0 0.00 0.00 0.00 95 1011.5
20260505102008 17 0 0.0 0.0 0.00 0.00 0.00 95 1011.5
20260505101908 17 0 0.0 0.0 0.00 0.00 0.00 95 1011.5
20260505101829 17 0 0.0 0.0 0.00 0.00 0.00 95 1011.5
20260505101708 17 0 0.0 0.0 0.00 0.00 0.00 95 1011.5
20260505101608 17 0 0.0 0.0 0.00 0.00 0.00 95 1011.6
20260505101508 17 0 0.0 0.0 0.00 0.00 0.00 95 1011.6
20260505101408 17 0 0.0 0.0 0.00 0.00 0.00 95 1011.6
20260505101308 17 0 0.0 0.0 0.00 0.00 0.00 95 1011.5
20260505101208 17 0 0.0 0.0 0.00 0.00 0.00 95 1011.4
20260505101108 17 0 0.0 0.0 0.00 0.00 0.00 95 1011.4
20260505101029 17 0 0.0 0.0 0.00 0.00 0.00 95 1011.4
20260505100908 17 0 0.0 0.0 0.00 0.00 0.00 95 1011.5
20260505100808 17 0 0.0 0.0 0.00 0.00 0.00 95 1011.5
20260505100708 17 0 0.0 0.0 0.00 0.00 0.00 95 1011.5
20260505100608 17 0 0.0 0.0 0.00 0.00 0.00 95 1011.4
20260505100508 17 0 0.0 0.0 0.00 0.00 0.00 95 1011.4
20260505100408 17 0 0.0 0.0 0.00 0.00 0.00 95 1011.4
20260505100330 17 0 0.0 0.0 0.00 0.00 0.00 95 1011.4
20260505100208 17 0 0.0 0.0 0.00 0.00 0.00 95 1011.5
20260505100108 17 0 0.0 0.0 0.00 0.00 0.00 95 1011.6
20260505100009 17 0 0.0 0.0 0.00 0.00 0.00 95 1011.3
20260505095908 17 0 0.0 0.0 0.00 0.00 0.00 95 1011.5
20260505095829 17 0 0.0 0.0 0.00 0.00 0.00 95 1011.5
20260505095729 17 0 0.0 0.0 0.00 0.00 0.00 95 1011.4
20260505095608 17 0 0.0 0.0 0.00 0.00 0.00 95 1011.3
20260505095508 17 0 0.0 0.0 0.00 0.00 0.00 95 1011.4
20260505095429 17 0 0.0 0.0 0.00 0.00 0.00 95 1011.4
20260505095308 17 360 0.0 3.2 0.00 0.00 0.00 95 1011.2
20260505095229 17 360 0.0 3.2 0.00 0.00 0.00 95 1011.4
20260505095129 17 360 0.0 3.2 0.00 0.00 0.00 95 1011.3
20260505095008 17 360 0.0 3.2 0.00 0.00 0.00 95 1011.2
20260505094908 17 360 0.0 3.2 0.00 0.00 0.00 95 1011.2
20260505094808 17 1 0.0 3.2 0.00 0.00 0.00 95 1011.3
20260505094729 17 4 0.0 3.2 0.00 0.00 0.00 95 1011.2
20260505094608 17 7 0.0 3.2 0.00 0.00 0.00 95 1011.2
20260505094529 17 8 0.0 3.2 0.00 0.00 0.00 95 1011.0
20260505094408 17 10 0.0 3.2 0.00 0.00 0.00 95 1011.1
20260505094308 17 9 1.6 3.2 0.00 0.00 0.00 95 1011.1
20260505094229 17 9 1.6 3.2 0.00 0.00 0.00 95 1011.1
20260505094108 17 9 3.2 3.2 0.00 0.00 0.00 95 1011.2
20260505094008 17 8 3.2 3.2 0.00 0.00 0.00 95 1011.2
20260505093908 17 9 3.2 3.2 0.00 0.00 0.00 95 1011.1
20260505093809 17 9 3.2 3.2 0.00 0.00 0.00 95 1011.3
20260505093708 17 8 3.2 3.2 0.00 0.00 0.00 95 1010.9
20260505093608 17 5 1.6 3.2 0.00 0.00 0.00 94 1011.1
20260505093508 17 1 1.6 3.2 0.00 0.00 0.00 94 1011.1
20260505093408 17 356 1.6 3.2 0.00 0.00 0.00 94 1011.1
20260505093308 17 354 1.6 3.2 0.00 0.00 0.00 94 1011.2
20260505093208 17 351 3.2 3.2 0.00 0.00 0.00 94 1011.0
20260505093108 17 337 1.6 3.2 0.00 0.00 0.00 94 1011.2
20260505093030 17 337 1.6 3.2 0.00 0.00 0.00 94 1011.2
20260505092908 17 0 0.0 0.0 0.00 0.00 0.00 94 1011.2
20260505092808 17 0 0.0 0.0 0.00 0.00 0.00 94 1011.1
20260505092708 17 0 0.0 0.0 0.00 0.00 0.00 94 1011.1
20260505092608 17 0 0.0 0.0 0.00 0.00 0.00 94 1010.9
20260505092529 17 0 0.0 0.0 0.00 0.00 0.00 94 1010.8
20260505092408 17 0 0.0 0.0 0.00 0.00 0.00 94 1011.0
20260505092308 17 0 0.0 0.0 0.00 0.00 0.00 94 1011.1
20260505092208 17 0 0.0 0.0 0.00 0.00 0.00 94 1010.9
20260505092108 17 0 0.0 0.0 0.00 0.00 0.00 94 1011.0
20260505092008 17 337 0.0 3.2 0.00 0.00 0.00 94 1011.1
20260505091908 17 337 0.0 3.2 0.00 0.00 0.00 94 1011.0
20260505091808 17 337 0.0 3.2 0.00 0.00 0.00 94 1011.0
20260505091708 17 337 0.0 3.2 0.00 0.00 0.00 94 1011.0
20260505091629 17 337 0.0 3.2 0.00 0.00 0.00 94 1010.9
20260505091508 17 337 0.0 3.2 0.00 0.00 0.00 94 1010.9
20260505091408 17 337 0.0 3.2 0.00 0.00 0.00 94 1010.9
20260505091308 17 337 0.0 3.2 0.00 0.00 0.00 94 1010.8
20260505091230 17 337 0.0 3.2 0.00 0.00 0.00 94 1010.8
20260505091108 17 337 1.6 3.2 0.00 0.00 0.00 94 1011.0
20260505091008 17 337 0.0 3.2 0.00 0.00 0.00 94 1010.8
20260505090908 17 337 0.0 3.2 0.00 0.00 0.00 94 1011.0
20260505090808 17 337 0.0 3.2 0.00 0.00 0.00 94 1010.9
20260505090708 17 337 1.6 3.2 0.00 0.00 0.00 94 1010.8
20260505090608 17 337 1.6 3.2 0.00 0.00 0.00 94 1010.8
20260505090508 17 337 1.6 3.2 0.00 0.00 0.00 94 1010.9
20260505090408 17 337 1.6 3.2 0.00 0.00 0.00 94 1010.8
20260505090308 17 337 0.0 3.2 0.00 0.00 0.00 94 1010.8
20260505090208 17 337 0.0 3.2 0.00 0.00 0.00 94 1010.9
20260505090108 17 337 0.0 3.2 0.00 0.00 0.00 94 1010.9
20260505090009 17 341 0.0 3.2 0.00 0.00 0.00 94 1010.9
20260505085908 17 346 3.2 3.2 0.00 0.00 0.00 94 1010.9
20260505085830 17 349 3.2 3.2 0.00 0.00 0.00 94 1010.9
20260505085708 17 357 1.6 3.2 0.00 0.00 0.00 94 1010.9
20260505085608 17 5 0.0 3.2 0.00 0.00 0.00 94 1010.8
20260505085508 17 10 0.0 6.4 0.00 0.00 0.00 94 1011.1
20260505085408 17 12 0.0 6.4 0.00 0.00 0.00 94 1010.7
20260505085308 17 13 0.0 6.4 0.00 0.00 0.00 94 1010.7
20260505085208 17 14 0.0 6.4 0.00 0.00 0.00 94 1010.8
20260505085108 17 16 1.6 6.4 0.00 0.00 0.00 94 1010.7
20260505085008 17 15 1.6 6.4 0.00 0.00 0.00 94 1010.7
20260505084908 17 16 1.6 6.4 0.00 0.00 0.00 94 1010.8
20260505084808 17 17 1.6 6.4 0.00 0.00 0.00 94 1010.7
20260505084708 17 16 3.2 6.4 0.00 0.00 0.00 94 1010.5
20260505084608 17 14 3.2 6.4 0.00 0.00 0.00 94 1010.6
20260505084508 17 12 3.2 6.4 0.00 0.00 0.00 94 1010.5
20260505084408 17 12 3.2 6.4 0.00 0.00 0.00 94 1010.4
20260505084308 17 12 3.2 6.4 0.00 0.00 0.00 94 1010.4
20260505084208 17 14 3.2 6.4 0.00 0.00 0.00 94 1010.3
20260505084108 17 14 3.2 6.4 0.00 0.00 0.00 94 1010.6
20260505084008 17 15 3.2 6.4 0.00 0.00 0.00 94 1010.6
20260505083908 17 15 3.2 6.4 0.00 0.00 0.00 94 1010.7
20260505083808 17 13 3.2 6.4 0.00 0.00 0.00 94 1010.5
20260505083708 17 15 4.8 6.4 0.00 0.00 0.00 94 1010.7
20260505083608 17 16 4.8 6.4 0.00 0.00 0.00 94 1010.5
20260505083508 17 18 3.2 6.4 0.00 0.00 0.00 94 1010.5
20260505083408 17 18 4.8 6.4 0.00 0.00 0.00 94 1010.5
20260505083308 17 18 3.2 6.4 0.00 0.00 0.00 94 1010.4
20260505083208 17 16 3.2 6.4 0.00 0.00 0.00 94 1010.4
20260505083108 17 14 4.8 6.4 0.00 0.00 0.00 94 1010.5
20260505083009 17 14 4.8 6.4 0.00 0.00 0.00 94 1010.6
20260505082908 17 14 3.2 6.4 0.00 0.00 0.00 94 1010.6
20260505082808 17 18 3.2 6.4 0.00 0.00 0.00 94 1010.7
20260505082708 17 18 3.2 6.4 0.00 0.00 0.00 93 1010.6
20260505082629 17 20 3.2 6.4 0.00 0.00 0.00 93 1010.6
20260505082508 17 21 3.2 6.4 0.00 0.00 0.00 93 1010.4
20260505082408 17 21 3.2 6.4 0.00 0.00 0.00 93 1010.6
20260505082308 17 21 3.2 6.4 0.00 0.00 0.00 93 1010.4
20260505082208 17 20 3.2 6.4 0.00 0.00 0.00 93 1010.5
20260505082108 17 19 3.2 6.4 0.00 0.00 0.00 93 1010.6
20260505082008 17 17 3.2 6.4 0.00 0.00 0.00 93 1010.5
20260505081908 17 16 3.2 6.4 0.00 0.00 0.00 93 1010.5
20260505081808 17 14 3.2 6.4 0.00 0.00 0.00 93 1010.5
20260505081708 17 14 3.2 6.4 0.00 0.00 0.00 93 1010.5
20260505081608 17 14 3.2 6.4 0.00 0.00 0.00 93 1010.5
20260505081529 17 12 3.2 6.4 0.00 0.00 0.00 93 1010.7
20260505081408 17 11 3.2 6.4 0.00 0.00 0.00 93 1010.6
20260505081308 17 9 3.2 6.4 0.00 0.00 0.00 93 1010.7
20260505081208 17 8 3.2 6.4 0.00 0.00 0.00 93 1010.8
20260505081129 17 7 3.2 6.4 0.00 0.00 0.00 93 1010.7
20260505081008 17 4 3.2 6.4 0.00 0.00 0.00 93 1010.8
20260505080908 17 4 3.2 6.4 0.00 0.00 0.00 93 1010.8
20260505080808 17 5 1.6 6.4 0.00 0.00 0.00 93 1010.7
20260505080730 17 8 3.2 6.4 0.00 0.00 0.00 93 1010.6
20260505080629 17 8 3.2 6.4 0.00 0.00 0.00 93 1010.7
20260505080508 17 8 3.2 3.2 0.00 0.00 0.00 93 1010.8
20260505080408 17 8 1.6 3.2 0.00 0.00 0.00 93 1010.8
20260505080329 17 8 1.6 3.2 0.00 0.00 0.00 93 1010.8
20260505080208 17 10 3.2 3.2 0.00 0.00 0.00 93 1010.9
20260505080108 17 17 1.6 3.2 0.00 0.00 0.00 93 1010.7
20260505080030 17 27 3.2 3.2 0.00 0.00 0.00 93 1010.6
20260505075908 17 41 3.2 3.2 0.00 0.00 0.00 93 1010.5
20260505075808 17 45 3.2 3.2 0.00 0.00 0.00 93 1010.6
20260505075708 17 45 1.6 3.2 0.00 0.00 0.00 93 1010.5
20260505075608 17 45 0.0 3.2 0.00 0.00 0.00 93 1010.6
20260505075508 17 45 0.0 3.2 0.00 0.00 0.00 93 1010.5
20260505075408 17 45 0.0 3.2 0.00 0.00 0.00 93 1010.7
20260505075308 17 45 0.0 3.2 0.00 0.00 0.00 93 1010.7
20260505075208 17 45 0.0 3.2 0.00 0.00 0.00 92 1010.6
20260505075108 17 45 1.6 3.2 0.00 0.00 0.00 92 1010.6
20260505075008 17 45 0.0 3.2 0.00 0.00 0.00 92 1010.6
20260505074908 17 42 0.0 3.2 0.00 0.00 0.00 92 1010.6
20260505074808 17 41 0.0 3.2 0.00 0.00 0.00 92 1010.4
20260505074708 17 40 0.0 3.2 0.00 0.00 0.00 92 1010.7
20260505074608 17 38 0.0 3.2 0.00 0.00 0.00 92 1010.6
20260505074429 17 35 0.0 3.2 0.00 0.00 0.00 92 1010.7
20260505074308 17 35 3.2 3.2 0.00 0.00 0.00 92 1010.6
20260505074208 17 35 3.2 3.2 0.00 0.00 0.00 92 1010.7
20260505074108 17 36 1.6 6.4 0.00 0.00 0.00 92 1010.7
20260505074008 17 37 3.2 6.4 0.00 0.00 0.00 92 1010.6
20260505073908 17 37 3.2 6.4 0.00 0.00 0.00 92 1010.5
20260505073808 17 35 3.2 6.4 0.00 0.00 0.00 92 1010.6
20260505073708 17 34 1.6 6.4 0.00 0.00 0.00 92 1010.6
20260505073608 17 34 3.2 6.4 0.00 0.00 0.00 92 1010.5
20260505073508 17 34 3.2 6.4 0.00 0.00 0.00 92 1010.6
20260505073408 17 33 3.2 6.4 0.00 0.00 0.00 92 1010.7
20260505073308 17 32 3.2 6.4 0.00 0.00 0.00 92 1010.7
20260505073208 17 30 3.2 6.4 0.00 0.00 0.00 92 1010.7
20260505073108 17 28 3.2 6.4 0.00 0.00 0.00 92 1010.6
20260505073009 17 25 3.2 6.4 0.00 0.00 0.00 92 1010.5
20260505072908 17 24 3.2 6.4 0.00 0.00 0.00 92 1010.6
20260505072808 17 24 3.2 6.4 0.00 0.00 0.00 92 1010.8
20260505072708 17 24 4.8 6.4 0.00 0.00 0.00 92 1010.7
20260505072608 17 22 3.2 6.4 0.00 0.00 0.00 92 1010.6
20260505072508 17 22 3.2 6.4 0.00 0.00 0.00 92 1010.7
20260505072408 17 21 3.2 6.4 0.00 0.00 0.00 92 1010.5
20260505072329 17 20 3.2 6.4 0.00 0.00 0.00 92 1010.9
20260505072208 17 17 3.2 6.4 0.00 0.00 0.00 92 1010.8
20260505072108 17 16 3.2 6.4 0.00 0.00 0.00 92 1010.9
20260505072008 17 13 3.2 6.4 0.00 0.00 0.00 92 1010.8
20260505071929 17 11 3.2 6.4 0.00 0.00 0.00 92 1010.8
20260505071808 17 7 3.2 6.4 0.00 0.00 0.00 92 1010.9
20260505071708 17 3 3.2 6.4 0.00 0.00 0.00 92 1010.7
20260505071608 17 357 3.2 6.4 0.00 0.00 0.00 92 1010.7
20260505071508 17 352 3.2 6.4 0.00 0.00 0.00 92 1010.9
20260505071430 17 350 3.2 6.4 0.00 0.00 0.00 92 1011.0
20260505071308 17 349 3.2 6.4 0.00 0.00 0.00 92 1010.9
20260505071229 17 347 3.2 6.4 0.00 0.00 0.00 92 1010.8
20260505071108 17 346 3.2 6.4 0.00 0.00 0.00 91 1010.9
20260505071008 17 346 3.2 6.4 0.00 0.00 0.00 91 1010.9
20260505070908 17 345 3.2 6.4 0.00 0.00 0.00 91 1010.8
20260505070808 17 343 3.2 6.4 0.00 0.00 0.00 91 1010.8
20260505070708 17 343 3.2 6.4 0.00 0.00 0.00 91 1011.0
20260505070629 17 343 3.2 6.4 0.00 0.00 0.00 91 1011.0
20260505070508 17 347 3.2 6.4 0.00 0.00 0.00 91 1010.9
20260505070408 17 348 3.2 9.7 0.00 0.00 0.00 91 1010.7
20260505070308 17 347 3.2 9.7 0.00 0.00 0.00 91 1010.9
20260505070208 17 350 3.2 9.7 0.00 0.00 0.00 91 1010.9
20260505070108 17 351 4.8 9.7 0.00 0.00 0.00 91 1010.9
20260505070030 17 350 4.8 9.7 0.00 0.00 0.00 91 1011.0
20260505065908 17 350 3.2 9.7 0.00 0.00 0.00 91 1010.8
20260505065829 17 350 3.2 9.7 0.00 0.00 0.00 91 1010.8
20260505065729 17 352 3.2 9.7 0.00 0.00 0.00 91 1010.9
20260505065608 17 355 3.2 9.7 0.00 0.00 0.00 91 1010.8
20260505065508 17 355 4.8 9.7 0.00 0.00 0.00 91 1010.9
20260505065408 17 355 4.8 9.7 0.00 0.00 0.00 91 1010.9
20260505065308 17 355 4.8 9.7 0.00 0.00 0.00 91 1010.8
20260505065208 17 353 3.2 9.7 0.00 0.00 0.00 91 1010.8
20260505065129 17 352 3.2 9.7 0.00 0.00 0.00 91 1010.8
20260505065008 17 356 3.2 9.7 0.00 0.00 0.00 91 1010.9
20260505064908 17 354 3.2 9.7 0.00 0.00 0.00 91 1011.0
20260505064829 17 354 3.2 9.7 0.00 0.00 0.00 91 1010.8
20260505064708 17 354 3.2 9.7 0.00 0.00 0.00 91 1010.9
20260505064608 17 354 4.8 11.3 0.00 0.00 0.00 91 1010.9
20260505064529 17 352 4.8 11.3 0.00 0.00 0.00 91 1010.9
20260505064408 17 353 4.8 11.3 0.00 0.00 0.00 91 1010.9
20260505064308 17 354 3.2 11.3 0.00 0.00 0.00 90 1010.9
20260505064208 17 356 4.8 11.3 0.00 0.00 0.00 90 1010.9
20260505064129 17 355 4.8 11.3 0.00 0.00 0.00 90 1010.8
20260505064008 17 352 4.8 11.3 0.00 0.00 0.00 90 1010.9
20260505063908 17 352 6.4 11.3 0.00 0.00 0.00 90 1010.9
20260505063808 17 353 6.4 11.3 0.00 0.00 0.00 90 1010.7
20260505063708 17 353 4.8 11.3 0.00 0.00 0.00 90 1010.7
20260505063608 17 353 6.4 11.3 0.00 0.00 0.00 90 1010.8
20260505063508 17 350 4.8 11.3 0.00 0.00 0.00 90 1010.7
20260505063408 17 349 6.4 11.3 0.00 0.00 0.00 90 1010.8
20260505063308 17 348 6.4 11.3 0.00 0.00 0.00 90 1010.6
20260505063208 17 346 3.2 9.7 0.00 0.00 0.00 90 1010.9
20260505063108 17 345 3.2 9.7 0.00 0.00 0.00 90 1010.5
20260505063030 17 345 3.2 9.7 0.00 0.00 0.00 90 1010.5
20260505062929 17 345 4.8 9.7 0.00 0.00 0.00 90 1010.7
20260505062808 17 342 6.4 9.7 0.00 0.00 0.00 90 1010.7
20260505062708 17 341 6.4 9.7 0.00 0.00 0.00 90 1010.8
20260505062608 17 339 6.4 9.7 0.00 0.00 0.00 90 1010.8
20260505062508 17 342 4.8 9.7 0.00 0.00 0.00 90 1010.7
20260505062408 17 344 4.8 9.7 0.00 0.00 0.00 90 1010.6
20260505062308 17 344 4.8 9.7 0.00 0.00 0.00 90 1010.7
20260505062208 17 342 4.8 9.7 0.00 0.00 0.00 90 1010.7
20260505062108 17 343 4.8 9.7 0.00 0.00 0.00 90 1010.7
20260505062008 17 343 4.8 9.7 0.00 0.00 0.00 90 1010.9
20260505061929 17 345 4.8 9.7 0.00 0.00 0.00 90 1010.8
20260505061808 17 346 4.8 9.7 0.00 0.00 0.00 89 1010.6
20260505061708 17 346 4.8 9.7 0.00 0.00 0.00 89 1010.7
20260505061608 17 346 3.2 9.7 0.00 0.00 0.00 89 1010.8
20260505061508 17 341 3.2 9.7 0.00 0.00 0.00 89 1010.8
20260505061408 17 339 3.2 9.7 0.00 0.00 0.00 89 1010.8
20260505061329 17 341 3.2 9.7 0.00 0.00 0.00 89 1010.7
20260505061208 17 344 3.2 9.7 0.00 0.00 0.00 89 1011.0
20260505061108 17 347 4.8 9.7 0.00 0.00 0.00 89 1010.8
20260505061029 17 348 4.8 11.3 0.00 0.00 0.00 89 1010.8
20260505060908 17 345 3.2 11.3 0.00 0.00 0.00 89 1010.7
20260505060808 17 347 4.8 11.3 0.00 0.00 0.00 89 1010.9
20260505060708 17 348 3.2 11.3 0.00 0.00 0.00 89 1010.9
20260505060608 17 348 3.2 11.3 0.00 0.00 0.00 89 1010.8
20260505060508 17 348 4.8 12.9 0.00 0.00 0.00 89 1010.9
20260505060408 17 348 6.4 12.9 0.00 0.00 0.00 89 1010.7
20260505060308 17 344 3.2 12.9 0.00 0.00 0.00 89 1011.0
20260505060208 17 343 6.4 12.9 0.00 0.00 0.00 89 1010.9
20260505060108 17 343 6.4 12.9 0.00 0.00 0.00 89 1010.9
20260505060009 17 342 6.4 12.9 0.00 0.00 0.00 89 1011.0
20260505055929 17 343 6.4 12.9 0.00 0.00 0.00 89 1010.9
20260505055808 17 341 4.8 12.9 0.00 0.00 0.00 89 1010.8
20260505055708 17 342 6.4 12.9 0.00 0.00 0.00 89 1010.9
20260505055608 17 343 4.8 12.9 0.00 0.00 0.00 89 1010.9
20260505055508 17 344 4.8 12.9 0.00 0.00 0.00 88 1010.9
20260505055408 17 344 6.4 12.9 0.00 0.00 0.00 88 1011.1
20260505055329 17 346 6.4 11.3 0.00 0.00 0.00 88 1011.0
20260505055208 17 352 6.4 11.3 0.00 0.00 0.00 88 1011.1
20260505055108 17 352 3.2 9.7 0.00 0.00 0.00 88 1010.9
20260505055008 17 353 4.8 9.7 0.00 0.00 0.00 88 1010.9
20260505054908 17 352 3.2 9.7 0.00 0.00 0.00 88 1011.0
20260505054808 17 354 4.8 9.7 0.00 0.00 0.00 88 1011.0
20260505054708 17 354 6.4 9.7 0.00 0.00 0.00 88 1011.1
20260505054629 17 353 6.4 9.7 0.00 0.00 0.00 88 1011.1
20260505054508 17 356 4.8 6.4 0.00 0.00 0.00 88 1010.8
20260505054408 17 357 4.8 6.4 0.00 0.00 0.00 88 1010.8
20260505054308 17 354 4.8 6.4 0.00 0.00 0.00 88 1010.8
20260505054208 17 354 4.8 9.7 0.00 0.00 0.00 88 1010.8
20260505054108 17 354 3.2 9.7 0.00 0.00 0.00 88 1010.8
20260505054008 17 354 3.2 9.7 0.00 0.00 0.00 88 1010.7
20260505053908 17 356 3.2 9.7 0.00 0.00 0.00 87 1010.8
20260505053808 17 356 3.2 9.7 0.00 0.00 0.00 87 1010.8
20260505053729 17 358 4.8 9.7 0.00 0.00 0.00 87 1010.8
20260505053608 17 2 3.2 9.7 0.00 0.00 0.00 87 1010.8
20260505053529 17 3 4.8 9.7 0.00 0.00 0.00 87 1010.8
20260505053408 17 6 4.8 9.7 0.00 0.00 0.00 87 1010.8
20260505053308 17 11 3.2 9.7 0.00 0.00 0.00 87 1010.8
20260505053208 17 16 6.4 9.7 0.00 0.00 0.00 87 1010.9
20260505053108 17 19 3.2 9.7 0.00 0.00 0.00 87 1010.9
20260505053008 17 21 3.2 9.7 0.00 0.00 0.00 87 1011.0
20260505052908 17 23 3.2 9.7 0.00 0.00 0.00 87 1010.9
20260505052808 17 24 3.2 9.7 0.00 0.00 0.00 87 1010.8
20260505052708 17 26 3.2 9.7 0.00 0.00 0.00 87 1010.8
20260505052608 17 26 4.8 9.7 0.00 0.00 0.00 87 1010.8
20260505052508 17 26 3.2 6.4 0.00 0.00 0.00 87 1010.8
20260505052429 17 26 4.8 6.4 0.00 0.00 0.00 86 1010.7
20260505052308 17 24 4.8 6.4 0.00 0.00 0.00 86 1010.8
20260505052229 17 24 4.8 6.4 0.00 0.00 0.00 86 1010.8
20260505052108 17 22 3.2 6.4 0.00 0.00 0.00 86 1011.0
20260505052008 17 22 3.2 6.4 0.00 0.00 0.00 86 1011.0
20260505051908 17 23 3.2 6.4 0.00 0.00 0.00 86 1010.9
20260505051808 17 23 3.2 6.4 0.00 0.00 0.00 86 1010.7
20260505051708 17 22 3.2 6.4 0.00 0.00 0.00 86 1011.1
20260505051629 17 21 3.2 6.4 0.00 0.00 0.00 86 1011.2
20260505051529 17 19 3.2 6.4 0.00 0.00 0.00 86 1011.0
20260505051429 17 18 3.2 6.4 0.00 0.00 0.00 85 1011.0
20260505051329 17 17 3.2 9.7 0.00 0.00 0.00 85 1011.0
20260505051230 17 16 3.2 9.7 0.00 0.00 0.00 85 1011.0
20260505051108 17 15 3.2 9.7 0.00 0.00 0.00 85 1011.1
20260505051008 17 15 4.8 9.7 0.00 0.00 0.00 85 1011.0
20260505050908 17 15 3.2 9.7 0.00 0.00 0.00 85 1011.0
20260505050808 17 14 4.8 9.7 0.00 0.00 0.00 85 1010.9
20260505050708 17 13 3.2 9.7 0.00 0.00 0.00 85 1010.8
20260505050608 17 14 4.8 9.7 0.00 0.00 0.00 85 1011.1
20260505050508 17 14 3.2 9.7 0.00 0.00 0.00 85 1011.0
20260505050408 17 14 6.4 9.7 0.00 0.00 0.00 85 1011.1
20260505050308 17 13 3.2 9.7 0.00 0.00 0.00 85 1011.1
20260505050208 17 15 3.2 9.7 0.00 0.00 0.00 85 1011.0
20260505050108 17 14 4.8 9.7 0.00 0.00 0.00 84 1011.1
20260505041708 17 7 4.8 11.3 0.00 0.00 0.00 81 1011.2
20260505041608 17 8 3.2 11.3 0.00 0.00 0.00 81 1011.4
20260505041508 17 9 3.2 11.3 0.00 0.00 0.00 80 1011.4
20260505041408 17 9 4.8 11.3 0.00 0.00 0.00 80 1011.3
20260505041308 17 11 4.8 11.3 0.00 0.00 0.00 80 1011.4
20260505041208 17 11 4.8 11.3 0.00 0.00 0.00 80 1011.4
20260505041108 17 7 4.8 9.7 0.00 0.00 0.00 80 1011.3
20260505041008 17 9 4.8 9.7 0.00 0.00 0.00 80 1011.3
20260505040908 17 8 6.4 9.7 0.00 0.00 0.00 80 1011.2
20260505040808 17 5 3.2 6.4 0.00 0.00 0.00 80 1011.3
20260505040708 17 8 4.8 6.4 0.00 0.00 0.00 80 1011.4
20260505040608 17 11 4.8 9.7 0.00 0.00 0.00 80 1011.3
20260505040508 17 11 4.8 9.7 0.00 0.00 0.00 80 1011.3
20260505040408 17 11 4.8 11.3 0.00 0.00 0.00 80 1011.3
20260505040308 17 10 4.8 11.3 0.00 0.00 0.00 79 1011.4
20260505040208 17 11 4.8 11.3 0.00 0.00 0.00 79 1011.3
20260505040108 17 10 3.2 11.3 0.00 0.00 0.00 79 1011.2
20260505040009 17 10 3.2 12.9 0.00 0.00 0.00 79 1011.4
20260505035908 17 9 3.2 12.9 0.00 0.00 0.00 79 1011.3
20260505035808 17 10 4.8 12.9 0.00 0.00 0.00 78 1011.2
20260505035708 17 11 4.8 12.9 0.00 0.00 0.00 78 1011.2
20260505035629 17 11 6.4 12.9 0.00 0.00 0.00 78 1011.1
20260505035508 17 12 4.8 12.9 0.00 0.00 0.00 78 1011.2
20260505035429 17 13 4.8 12.9 0.00 0.00 0.00 78 1011.2
20260505035308 17 16 4.8 14.5 0.00 0.00 0.00 78 1011.2
20260505035208 17 18 4.8 14.5 0.00 0.00 0.00 78 1011.2
20260505035108 17 17 6.4 14.5 0.00 0.00 0.00 78 1011.4
20260505035008 17 20 6.4 14.5 0.00 0.00 0.00 78 1011.1
20260505034929 17 21 6.4 14.5 0.00 0.00 0.00 78 1011.1
20260505034808 17 23 6.4 14.5 0.00 0.00 0.00 78 1011.1
20260505034708 17 23 4.8 14.5 0.00 0.00 0.00 78 1011.0
20260505034608 17 23 6.4 14.5 0.00 0.00 0.00 78 1011.1
20260505034508 17 20 8.0 14.5 0.00 0.00 0.00 78 1011.0
20260505034408 17 18 6.4 14.5 0.00 0.00 0.00 78 1011.0
20260505034308 17 16 6.4 14.5 0.00 0.00 0.00 78 1010.9
20260505034229 17 14 6.4 14.5 0.00 0.00 0.00 78 1010.9
20260505034108 17 16 6.4 14.5 0.00 0.00 0.00 78 1010.9
20260505034008 17 16 8.0 14.5 0.00 0.00 0.00 78 1011.1
20260505033908 17 14 6.4 14.5 0.00 0.00 0.00 78 1011.1
20260505033808 17 14 4.8 14.5 0.00 0.00 0.00 78 1011.0
20260505033708 17 14 8.0 14.5 0.00 0.00 0.00 78 1011.0
20260505033608 17 13 8.0 12.9 0.00 0.00 0.00 78 1011.0
20260505033508 17 14 6.4 14.5 0.00 0.00 0.00 77 1011.0
20260505033408 17 13 6.4 14.5 0.00 0.00 0.00 77 1011.0
20260505033308 17 17 6.4 14.5 0.00 0.00 0.00 77 1011.0
20260505033208 17 17 4.8 14.5 0.00 0.00 0.00 77 1011.2
20260505033108 17 16 6.4 14.5 0.00 0.00 0.00 77 1011.1
20260505033008 17 17 6.4 14.5 0.00 0.00 0.00 77 1011.1
20260505032908 17 18 6.4 14.5 0.00 0.00 0.00 77 1011.2
20260505032808 17 18 6.4 14.5 0.00 0.00 0.00 77 1011.1
20260505032708 17 18 4.8 14.5 0.00 0.00 0.00 77 1011.0
20260505032608 17 20 6.4 14.5 0.00 0.00 0.00 78 1011.0
20260505032508 17 18 6.4 14.5 0.00 0.00 0.00 78 1011.1
20260505032408 17 18 6.4 14.5 0.00 0.00 0.00 78 1011.2
20260505032329 17 16 6.4 14.5 0.00 0.00 0.00 78 1011.1
20260505032229 17 15 8.0 14.5 0.00 0.00 0.00 78 1011.4
20260505032108 17 16 4.8 14.5 0.00 0.00 0.00 78 1011.0
20260505032029 17 14 6.4 14.5 0.00 0.00 0.00 78 1011.0
20260505031908 17 11 6.4 14.5 0.00 0.00 0.00 78 1011.1
20260505031829 17 9 6.4 14.5 0.00 0.00 0.00 78 1011.1
20260505031708 17 10 6.4 14.5 0.00 0.00 0.00 78 1011.3
20260505031608 17 9 6.4 14.5 0.00 0.00 0.00 78 1011.0
20260505031508 17 11 6.4 14.5 0.00 0.00 0.00 78 1011.2
20260505031408 17 14 4.8 12.9 0.00 0.00 0.00 78 1011.0
20260505031308 17 14 6.4 12.9 0.00 0.00 0.00 78 1011.0
20260505031208 17 13 4.8 12.9 0.00 0.00 0.00 78 1011.2
20260505031129 17 11 4.8 12.9 0.00 0.00 0.00 78 1011.1
20260505031008 17 12 4.8 12.9 0.00 0.00 0.00 78 1010.9
20260505030908 17 13 6.4 12.9 0.00 0.00 0.00 78 1011.0
20260505030808 17 14 6.4 12.9 0.00 0.00 0.00 78 1011.0
20260505030708 17 11 4.8 11.3 0.00 0.00 0.00 78 1011.1
20260505030629 17 10 4.8 11.3 0.00 0.00 0.00 78 1011.1
20260505030508 17 8 3.2 11.3 0.00 0.00 0.00 78 1011.0
20260505030408 17 3 4.8 11.3 0.00 0.00 0.00 78 1011.0
20260505030308 17 1 6.4 11.3 0.00 0.00 0.00 78 1010.8
20260505030208 17 1 6.4 11.3 0.00 0.00 0.00 78 1010.9
20260505030108 17 2 6.4 11.3 0.00 0.00 0.00 78 1010.9
20260505030009 17 360 6.4 9.7 0.00 0.00 0.00 78 1010.9
20260505025908 17 357 4.8 9.7 0.00 0.00 0.00 78 1011.0
20260505025808 17 358 6.4 9.7 0.00 0.00 0.00 78 1011.1
20260505025708 17 358 6.4 11.3 0.00 0.00 0.00 78 1011.0
20260505025608 17 2 6.4 11.3 0.00 0.00 0.00 78 1010.8
20260505025508 17 1 4.8 11.3 0.00 0.00 0.00 78 1011.1
20260505025408 17 3 6.4 11.3 0.00 0.00 0.00 78 1011.0
20260505025329 17 5 6.4 11.3 0.00 0.00 0.00 78 1011.0
20260505025208 17 7 6.4 12.9 0.00 0.00 0.00 78 1011.0
20260505025108 17 8 6.4 12.9 0.00 0.00 0.00 78 1010.9
20260505025008 17 10 4.8 12.9 0.00 0.00 0.00 78 1010.8
20260505024908 17 10 6.4 12.9 0.00 0.00 0.00 78 1010.9
20260505024808 17 11 6.4 12.9 0.00 0.00 0.00 78 1010.8
20260505024708 17 11 6.4 12.9 0.00 0.00 0.00 78 1010.8
20260505024608 17 8 4.8 12.9 0.00 0.00 0.00 78 1010.9
20260505024508 17 7 4.8 12.9 0.00 0.00 0.00 78 1010.8
20260505024408 17 9 6.4 12.9 0.00 0.00 0.00 78 1010.8
20260505024308 17 7 6.4 12.9 0.00 0.00 0.00 78 1010.7
20260505024208 17 10 6.4 12.9 0.00 0.00 0.00 78 1010.7
20260505024108 17 11 4.8 11.3 0.00 0.00 0.00 79 1010.8
20260505024008 17 9 6.4 12.9 0.00 0.00 0.00 79 1010.8
20260505023908 17 10 6.4 12.9 0.00 0.00 0.00 79 1010.8
20260505023808 17 13 6.4 12.9 0.00 0.00 0.00 79 1010.8
20260505023709 17 14 6.4 12.9 0.00 0.00 0.00 79 1010.7
20260505023608 17 16 6.4 12.9 0.00 0.00 0.00 79 1010.9
20260505023508 17 17 6.4 12.9 0.00 0.00 0.00 78 1010.7
20260505023408 17 16 4.8 12.9 0.00 0.00 0.00 78 1010.8
20260505023308 17 17 6.4 12.9 0.00 0.00 0.00 78 1010.9
20260505023208 17 17 6.4 12.9 0.00 0.00 0.00 78 1010.8
20260505023108 17 16 8.0 12.9 0.00 0.00 0.00 78 1010.9
20260505023008 17 17 6.4 11.3 0.00 0.00 0.00 78 1010.9
20260505022908 17 15 6.4 11.3 0.00 0.00 0.00 78 1010.7
20260505022808 17 13 4.8 9.7 0.00 0.00 0.00 78 1010.9
20260505022708 17 12 4.8 9.7 0.00 0.00 0.00 78 1010.7
20260505022608 17 12 6.4 9.7 0.00 0.00 0.00 78 1010.9
20260505022508 17 11 4.8 9.7 0.00 0.00 0.00 78 1010.7
20260505022408 17 11 3.2 9.7 0.00 0.00 0.00 78 1010.8
20260505022308 17 10 6.4 9.7 0.00 0.00 0.00 78 1010.7
20260505022229 17 8 6.4 9.7 0.00 0.00 0.00 78 1010.7
20260505022129 17 9 4.8 9.7 0.00 0.00 0.00 78 1010.6
20260505022008 17 11 4.8 11.3 0.00 0.00 0.00 78 1010.6
20260505021908 17 13 4.8 11.3 0.00 0.00 0.00 78 1010.6
20260505021808 17 12 4.8 11.3 0.00 0.00 0.00 78 1010.6
20260505021708 16 13 4.8 11.3 0.00 0.00 0.00 78 1010.7
20260505021608 16 10 4.8 11.3 0.00 0.00 0.00 78 1010.5
20260505021508 16 10 3.2 11.3 0.00 0.00 0.00 78 1010.7
20260505021408 16 10 4.8 11.3 0.00 0.00 0.00 78 1010.7
20260505021308 16 9 4.8 11.3 0.00 0.00 0.00 78 1010.5
20260505021229 16 10 4.8 11.3 0.00 0.00 0.00 78 1010.6
20260505021108 16 11 6.4 11.3 0.00 0.00 0.00 78 1010.6
20260505021008 16 11 6.4 9.7 0.00 0.00 0.00 78 1010.6
20260505020908 16 9 4.8 11.3 0.00 0.00 0.00 78 1010.6
20260505020808 16 8 4.8 11.3 0.00 0.00 0.00 78 1010.6
20260505020708 16 7 4.8 11.3 0.00 0.00 0.00 77 1010.5
20260505020608 16 9 3.2 11.3 0.00 0.00 0.00 77 1010.6
20260505020508 16 9 4.8 11.3 0.00 0.00 0.00 77 1010.6
20260505020408 17 9 4.8 11.3 0.00 0.00 0.00 77 1010.6
20260505020308 17 9 4.8 11.3 0.00 0.00 0.00 77 1010.6
20260505020208 17 8 4.8 11.3 0.00 0.00 0.00 77 1010.5
20260505020129 17 10 4.8 11.3 0.00 0.00 0.00 77 1010.5
20260505020009 17 3 4.8 11.3 0.00 0.00 0.00 77 1010.7
20260505015908 17 2 4.8 11.3 0.00 0.00 0.00 77 1010.8
20260505015808 17 1 4.8 11.3 0.00 0.00 0.00 77 1010.5
20260505015708 17 359 4.8 11.3 0.00 0.00 0.00 77 1010.6
20260505015629 17 359 4.8 11.3 0.00 0.00 0.00 77 1010.4
20260505015508 17 356 3.2 11.3 0.00 0.00 0.00 76 1010.5
20260505015408 17 355 3.2 11.3 0.00 0.00 0.00 76 1010.7
20260505015329 17 354 4.8 11.3 0.00 0.00 0.00 76 1010.5
20260505015208 17 354 4.8 11.3 0.00 0.00 0.00 76 1010.6
20260505015108 17 351 6.4 11.3 0.00 0.00 0.00 76 1010.6
20260505015008 17 351 4.8 9.7 0.00 0.00 0.00 76 1010.5
20260505014908 17 350 4.8 9.7 0.00 0.00 0.00 76 1010.5
20260505014829 17 351 3.2 9.7 0.00 0.00 0.00 76 1010.5
20260505014708 17 355 4.8 9.7 0.00 0.00 0.00 76 1010.7
20260505014608 17 358 3.2 9.7 0.00 0.00 0.00 76 1010.6
20260505014508 17 358 4.8 9.7 0.00 0.00 0.00 76 1010.5
20260505014408 17 359 3.2 9.7 0.00 0.00 0.00 76 1010.6
20260505014308 17 1 4.8 9.7 0.00 0.00 0.00 76 1010.5
20260505014208 17 360 3.2 9.7 0.00 0.00 0.00 75 1010.6
20260505014108 17 3 3.2 9.7 0.00 0.00 0.00 75 1010.6
20260505014008 17 6 3.2 9.7 0.00 0.00 0.00 75 1010.6
20260505013908 17 9 4.8 9.7 0.00 0.00 0.00 75 1010.5
20260505013808 17 11 4.8 9.7 0.00 0.00 0.00 75 1010.6
20260505013708 17 12 6.4 12.9 0.00 0.00 0.00 75 1010.5
20260505013608 17 12 4.8 12.9 0.00 0.00 0.00 75 1010.6
20260505013508 17 11 3.2 12.9 0.00 0.00 0.00 75 1010.6
20260505013429 17 13 3.2 12.9 0.00 0.00 0.00 75 1010.6
20260505013308 17 14 3.2 12.9 0.00 0.00 0.00 75 1010.6
20260505013208 17 17 3.2 12.9 0.00 0.00 0.00 75 1010.5
20260505013108 17 16 4.8 12.9 0.00 0.00 0.00 76 1010.5
20260505013008 17 14 3.2 12.9 0.00 0.00 0.00 76 1010.5
20260505012908 17 15 4.8 12.9 0.00 0.00 0.00 76 1010.3
20260505012808 17 14 4.8 12.9 0.00 0.00 0.00 76 1010.5
20260505012708 17 14 6.4 11.3 0.00 0.00 0.00 77 1010.5
20260505012607 17 15 6.4 11.3 0.00 0.00 0.00 77 1010.6
20260505012508 17 21 4.8 9.7 0.00 0.00 0.00 77 1010.5
20260505012408 17 19 4.8 9.7 0.00 0.00 0.00 78 1010.3
20260505012308 17 21 3.2 9.7 0.00 0.00 0.00 78 1010.5
20260505012208 17 21 3.2 9.7 0.00 0.00 0.00 78 1010.6
20260505012108 16 20 3.2 9.7 0.00 0.00 0.00 78 1010.5
20260505012008 16 22 3.2 9.7 0.00 0.00 0.00 79 1010.5
20260505011908 16 24 3.2 9.7 0.00 0.00 0.00 79 1010.4
20260505011808 16 25 3.2 9.7 0.00 0.00 0.00 79 1010.4
20260505011729 16 24 4.8 9.7 0.00 0.00 0.00 79 1010.5
20260505011629 16 25 4.8 9.7 0.00 0.00 0.00 79 1010.6
20260505011508 16 27 4.8 6.4 0.00 0.00 0.00 80 1010.4
20260505011408 16 28 4.8 9.7 0.00 0.00 0.00 80 1010.4
20260505011308 16 30 4.8 9.7 0.00 0.00 0.00 80 1010.5
20260505011208 16 31 3.2 9.7 0.00 0.00 0.00 80 1010.4
20260505011108 16 32 3.2 9.7 0.00 0.00 0.00 80 1010.5
20260505011008 16 34 4.8 9.7 0.00 0.00 0.00 80 1010.6
20260505010908 16 33 3.2 9.7 0.00 0.00 0.00 80 1010.5
20260505010829 16 34 4.8 9.7 0.00 0.00 0.00 80 1010.6
20260505010708 16 39 4.8 9.7 0.00 0.00 0.00 81 1010.4
20260505010608 16 39 3.2 9.7 0.00 0.00 0.00 81 1010.4
20260505010508 16 36 4.8 9.7 0.00 0.00 0.00 81 1010.3
20260505010408 16 36 6.4 9.7 0.00 0.00 0.00 81 1010.5
20260505010308 16 36 4.8 9.7 0.00 0.00 0.00 81 1010.5
20260505010208 16 36 6.4 9.7 0.00 0.00 0.00 81 1010.5
20260505010108 16 38 3.2 6.4 0.00 0.00 0.00 81 1010.5
20260505010009 16 40 3.2 6.4 0.00 0.00 0.00 81 1010.5
20260505005908 16 41 3.2 6.4 0.00 0.00 0.00 81 1010.5
20260505005808 16 40 4.8 6.4 0.00 0.00 0.00 81 1010.6
20260505005729 16 40 3.2 6.4 0.00 0.00 0.00 81 1010.6
20260505005608 16 37 3.2 6.4 0.00 0.00 0.00 81 1010.6
20260505005529 16 38 3.2 6.4 0.00 0.00 0.00 81 1010.5
20260505005408 16 39 3.2 6.4 0.00 0.00 0.00 81 1010.4
20260505005308 16 40 3.2 6.4 0.00 0.00 0.00 81 1010.4
20260505005208 16 40 3.2 6.4 0.00 0.00 0.00 81 1010.4
20260505005108 16 39 3.2 6.4 0.00 0.00 0.00 81 1010.5
20260505005029 16 39 3.2 6.4 0.00 0.00 0.00 81 1010.5
20260505004908 16 39 3.2 6.4 0.00 0.00 0.00 81 1010.3
20260505004808 16 40 3.2 6.4 0.00 0.00 0.00 81 1010.3
20260505004729 16 40 3.2 6.4 0.00 0.00 0.00 80 1010.4
20260505004629 16 42 3.2 6.4 0.00 0.00 0.00 80 1010.3
20260505004529 16 45 3.2 6.4 0.00 0.00 0.00 80 1010.4
20260505004408 16 45 3.2 6.4 0.00 0.00 0.00 80 1010.3
20260505004308 16 45 0.0 3.2 0.00 0.00 0.00 80 1010.3
20260505004208 16 45 1.6 3.2 0.00 0.00 0.00 80 1010.5
20260505004108 16 45 1.6 3.2 0.00 0.00 0.00 80 1010.4
20260505004029 16 43 1.6 3.2 0.00 0.00 0.00 80 1010.4
20260505003929 16 43 1.6 3.2 0.00 0.00 0.00 80 1010.4
20260505003808 16 43 1.6 3.2 0.00 0.00 0.00 80 1010.4
20260505003708 16 43 1.6 3.2 0.00 0.00 0.00 80 1010.4
20260505003629 16 41 1.6 3.2 0.00 0.00 0.00 80 1010.3
20260505003508 16 40 1.6 3.2 0.00 0.00 0.00 80 1010.3
20260505003408 16 40 3.2 3.2 0.00 0.00 0.00 80 1010.4
20260505003308 16 40 3.2 3.2 0.00 0.00 0.00 80 1010.3
20260505003208 16 40 3.2 3.2 0.00 0.00 0.00 80 1010.4
20260505003108 16 39 3.2 3.2 0.00 0.00 0.00 79 1010.3
20260505003029 16 39 3.2 3.2 0.00 0.00 0.00 79 1010.3
20260505002908 16 40 3.2 3.2 0.00 0.00 0.00 79 1010.2
20260505002830 16 40 3.2 3.2 0.00 0.00 0.00 79 1010.3
20260505002708 16 38 1.6 3.2 0.00 0.00 0.00 79 1010.3
20260505002608 16 38 1.6 3.2 0.00 0.00 0.00 79 1010.5
20260505002529 16 39 3.2 3.2 0.00 0.00 0.00 79 1010.4
20260505002408 16 36 3.2 3.2 0.00 0.00 0.00 78 1010.6
20260505002308 16 34 1.6 3.2 0.00 0.00 0.00 78 1010.4
20260505002208 16 31 1.6 3.2 0.00 0.00 0.00 78 1010.3
20260505002108 16 30 3.2 3.2 0.00 0.00 0.00 78 1010.2
20260505002029 16 30 1.6 3.2 0.00 0.00 0.00 78 1010.4
20260505001908 16 28 1.6 6.4 0.00 0.00 0.00 78 1010.2
20260505001808 16 26 1.6 6.4 0.00 0.00 0.00 78 1010.3
20260505001708 16 26 1.6 6.4 0.00 0.00 0.00 78 1010.3
20260505001508 16 24 1.6 6.4 0.00 0.00 0.00 78 1010.3
20260505001408 16 24 1.6 6.4 0.00 0.00 0.00 78 1010.3
20260505001329 16 24 1.6 6.4 0.00 0.00 0.00 78 1010.3
20260505001208 16 27 1.6 6.4 0.00 0.00 0.00 78 1010.4
20260505001108 16 29 1.6 6.4 0.00 0.00 0.00 78 1010.2
20260505001008 16 31 1.6 6.4 0.00 0.00 0.00 78 1010.3
20260505000908 16 32 3.2 6.4 0.00 0.00 0.00 78 1010.3
20260505000808 16 35 1.6 3.2 0.00 0.00 0.00 79 1010.2
20260505000708 16 38 0.0 3.2 0.00 0.00 0.00 79 1010.3
20260505000629 16 38 0.0 3.2 0.00 0.00 0.00 79 1010.3
20260505000508 16 41 0.0 3.2 0.00 0.00 0.00 79 1010.4
20260505000408 16 43 1.6 3.2 0.00 0.00 0.00 79 1010.4
20260505000308 16 45 1.6 3.2 0.00 0.00 0.00 79 1010.1
20260505000208 16 45 1.6 3.2 0.00 0.00 0.00 79 1010.3
20260505000108 16 43 1.6 3.2 0.00 0.00 0.00 79 1010.3
20260505000008 17 40 3.2 3.2 0.00 0.00 0.00 78 1010.3
20260504235908 17 38 1.6 3.2 0.00 0.00 0.00 78 1010.2
20260504235808 17 36 3.2 3.2 0.00 0.00 0.00 78 1010.3
20260504235729 17 35 1.6 3.2 0.00 0.00 0.00 78 1010.3
20260504235608 17 34 1.6 3.2 0.00 0.00 0.00 78 1010.2
20260504235508 17 33 3.2 3.2 0.00 0.00 0.00 78 1010.3
20260504235408 17 32 1.6 3.2 0.00 0.00 0.00 78 1010.2
20260504235308 17 32 1.6 3.2 0.00 0.00 0.00 78 1010.2
20260504235229 17 32 3.2 3.2 0.00 0.00 0.00 78 1010.0
20260504235108 17 34 3.2 3.2 0.00 0.00 0.00 78 1010.2
20260504235008 17 37 3.2 3.2 0.00 0.00 0.00 78 1010.0
20260504234908 17 39 1.6 3.2 0.00 0.00 0.00 78 1010.1
20260504234808 17 41 1.6 3.2 0.00 0.00 0.00 78 1010.1
20260504234708 17 44 1.6 3.2 0.00 0.00 0.00 78 1010.2
20260504234629 17 44 1.6 3.2 0.00 0.00 0.00 78 1010.2
20260504234508 17 44 0.0 3.2 0.00 0.00 0.00 78 1010.1
20260504234408 17 45 1.6 3.2 0.00 0.00 0.00 78 1010.2
20260504234308 17 45 3.2 3.2 0.00 0.00 0.00 78 1010.1
20260504234208 17 45 3.2 3.2 0.00 0.00 0.00 77 1010.1
20260504234108 17 45 3.2 3.2 0.00 0.00 0.00 77 1010.1
20260504234008 17 45 3.2 3.2 0.00 0.00 0.00 77 1010.1
20260504233908 17 45 1.6 3.2 0.00 0.00 0.00 77 1010.0
20260504233808 17 45 1.6 3.2 0.00 0.00 0.00 77 1010.0
20260504233708 17 45 1.6 3.2 0.00 0.00 0.00 77 1010.0
20260504233608 17 45 1.6 6.4 0.00 0.00 0.00 77 1010.0
20260504233529 17 44 0.0 6.4 0.00 0.00 0.00 77 1010.1
20260504233408 17 43 1.6 6.4 0.00 0.00 0.00 77 1010.0
20260504233308 17 41 1.6 6.4 0.00 0.00 0.00 77 1010.1
20260504233208 17 42 1.6 6.4 0.00 0.00 0.00 77 1010.0
20260504233108 17 42 1.6 6.4 0.00 0.00 0.00 77 1010.1
20260504233008 17 40 1.6 6.4 0.00 0.00 0.00 77 1009.8
20260504232908 17 39 1.6 6.4 0.00 0.00 0.00 77 1009.8
20260504232808 17 37 3.2 6.4 0.00 0.00 0.00 77 1009.8
20260504232708 17 35 3.2 6.4 0.00 0.00 0.00 77 1010.0
20260504232608 17 32 1.6 6.4 0.00 0.00 0.00 77 1009.8
20260504232508 17 31 1.6 6.4 0.00 0.00 0.00 77 1009.8
20260504232408 17 30 3.2 6.4 0.00 0.00 0.00 77 1009.7
20260504232308 17 30 3.2 6.4 0.00 0.00 0.00 77 1009.8
20260504232208 17 30 3.2 6.4 0.00 0.00 0.00 77 1009.7
20260504232108 17 29 3.2 3.2 0.00 0.00 0.00 77 1009.8
20260504232008 17 30 3.2 6.4 0.00 0.00 0.00 77 1009.8
20260504231908 17 31 1.6 6.4 0.00 0.00 0.00 77 1009.8
20260504231808 17 32 1.6 6.4 0.00 0.00 0.00 77 1009.7
20260504231708 17 34 1.6 6.4 0.00 0.00 0.00 77 1009.7
20260504231608 17 33 3.2 6.4 0.00 0.00 0.00 77 1009.8
20260504231508 17 33 3.2 6.4 0.00 0.00 0.00 76 1009.7
20260504231408 17 35 3.2 6.4 0.00 0.00 0.00 76 1009.7
20260504231308 17 37 3.2 6.4 0.00 0.00 0.00 76 1009.6
20260504231208 17 36 3.2 6.4 0.00 0.00 0.00 76 1009.6
20260504231108 17 35 3.2 6.4 0.00 0.00 0.00 76 1009.5
20260504231008 17 34 4.8 6.4 0.00 0.00 0.00 76 1009.6
20260504230929 17 34 3.2 6.4 0.00 0.00 0.00 76 1009.7
20260504230808 17 33 3.2 6.4 0.00 0.00 0.00 76 1009.7
20260504230708 17 33 3.2 6.4 0.00 0.00 0.00 76 1009.5
20260504230608 17 36 3.2 6.4 0.00 0.00 0.00 76 1009.7
20260504230508 17 38 3.2 6.4 0.00 0.00 0.00 76 1009.5
20260504230408 17 37 3.2 6.4 0.00 0.00 0.00 76 1009.6
20260504230308 17 37 3.2 6.4 0.00 0.00 0.00 76 1009.6
20260504230208 17 38 3.2 6.4 0.00 0.00 0.00 76 1009.5
20260504230129 17 39 3.2 6.4 0.00 0.00 0.00 76 1009.5
20260504230008 17 38 3.2 6.4 0.00 0.00 0.00 76 1009.5
20260504225908 17 42 3.2 6.4 0.00 0.00 0.00 75 1009.5
20260504225829 17 43 3.2 6.4 0.00 0.00 0.00 75 1009.5
20260504225708 17 41 3.2 6.4 0.00 0.00 0.00 75 1009.6
20260504225608 17 41 3.2 6.4 0.00 0.00 0.00 75 1009.7
20260504225508 17 41 3.2 6.4 0.00 0.00 0.00 75 1009.6
20260504225408 17 39 3.2 6.4 0.00 0.00 0.00 74 1009.5
20260504225308 17 37 3.2 6.4 0.00 0.00 0.00 74 1009.5
20260504225208 17 36 3.2 6.4 0.00 0.00 0.00 74 1009.6
20260504225108 18 34 3.2 6.4 0.00 0.00 0.00 74 1009.4
20260504225008 18 33 3.2 6.4 0.00 0.00 0.00 74 1009.4
20260504224929 18 31 3.2 6.4 0.00 0.00 0.00 74 1009.4
20260504224808 18 28 4.8 6.4 0.00 0.00 0.00 74 1009.5
20260504224729 17 27 3.2 6.4 0.00 0.00 0.00 74 1009.4
20260504224629 17 25 3.2 6.4 0.00 0.00 0.00 74 1009.2
20260504224508 17 22 3.2 6.4 0.00 0.00 0.00 74 1009.3
20260504224408 17 22 3.2 6.4 0.00 0.00 0.00 74 1009.2
20260504224308 17 22 3.2 6.4 0.00 0.00 0.00 74 1009.5
20260504224207 17 24 3.2 6.4 0.00 0.00 0.00 74 1009.1
20260504224108 17 24 3.2 6.4 0.00 0.00 0.00 75 1009.3
20260504224007 17 24 3.2 6.4 0.00 0.00 0.00 75 1009.2
20260504223908 18 24 3.2 6.4 0.00 0.00 0.00 75 1009.2
20260504223829 18 24 3.2 6.4 0.00 0.00 0.00 75 1009.2
20260504223708 18 25 3.2 6.4 0.00 0.00 0.00 75 1009.2
20260504223608 18 25 3.2 6.4 0.00 0.00 0.00 75 1009.3
20260504223508 18 26 3.2 6.4 0.00 0.00 0.00 75 1009.2
20260504223408 18 28 3.2 6.4 0.00 0.00 0.00 75 1009.1
20260504223308 18 28 3.2 6.4 0.00 0.00 0.00 75 1009.3
20260504223208 18 29 3.2 6.4 0.00 0.00 0.00 75 1009.3
20260504223108 18 28 3.2 6.4 0.00 0.00 0.00 75 1009.3
20260504223008 17 28 3.2 6.4 0.00 0.00 0.00 75 1009.3
20260504222908 17 28 3.2 6.4 0.00 0.00 0.00 75 1009.2
20260504222808 18 30 3.2 3.2 0.00 0.00 0.00 75 1009.2
20260504222729 18 30 3.2 3.2 0.00 0.00 0.00 75 1009.1
20260504222608 18 31 1.6 3.2 0.00 0.00 0.00 75 1009.1
20260504222508 18 33 1.6 3.2 0.00 0.00 0.00 75 1009.3
20260504222408 18 30 1.6 3.2 0.00 0.00 0.00 75 1009.1
20260504222308 18 30 3.2 3.2 0.00 0.00 0.00 75 1009.1
20260504222208 18 28 3.2 3.2 0.00 0.00 0.00 75 1009.1
20260504222107 18 28 3.2 3.2 0.00 0.00 0.00 75 1009.2
20260504222008 18 28 1.6 3.2 0.00 0.00 0.00 75 1009.2
20260504221908 18 28 1.6 3.2 0.00 0.00 0.00 75 1009.0
20260504221808 18 28 0.0 3.2 0.00 0.00 0.00 75 1009.2
20260504221708 18 27 0.0 3.2 0.00 0.00 0.00 75 1009.3
20260504221608 18 25 1.6 6.4 0.00 0.00 0.00 75 1009.2
20260504221508 18 25 1.6 6.4 0.00 0.00 0.00 75 1009.3
20260504221408 18 25 3.2 6.4 0.00 0.00 0.00 75 1009.3
20260504221308 18 25 1.6 6.4 0.00 0.00 0.00 75 1009.0
20260504221208 18 29 3.2 6.4 0.00 0.00 0.00 75 1009.2
20260504221129 18 30 1.6 6.4 0.00 0.00 0.00 75 1009.0
20260504221008 18 31 1.6 6.4 0.00 0.00 0.00 75 1009.1
20260504220929 18 31 3.2 6.4 0.00 0.00 0.00 75 1009.0
20260504220808 18 30 3.2 6.4 0.00 0.00 0.00 75 1009.0
20260504220708 18 30 3.2 6.4 0.00 0.00 0.00 75 1008.9
20260504220608 18 30 3.2 6.4 0.00 0.00 0.00 75 1009.1
20260504220508 18 31 3.2 6.4 0.00 0.00 0.00 75 1009.0
20260504220429 18 31 3.2 6.4 0.00 0.00 0.00 75 1009.2
20260504220308 18 34 3.2 6.4 0.00 0.00 0.00 74 1009.1
20260504220208 18 33 3.2 6.4 0.00 0.00 0.00 74 1009.1
20260504220108 18 32 1.6 3.2 0.00 0.00 0.00 74 1009.0
20260504220029 18 34 1.6 3.2 0.00 0.00 0.00 74 1008.9
20260504215908 18 33 1.6 3.2 0.00 0.00 0.00 74 1008.9
20260504215808 18 33 0.0 3.2 0.00 0.00 0.00 73 1008.9
20260504215708 18 33 0.0 3.2 0.00 0.00 0.00 73 1009.0
20260504215629 18 33 1.6 3.2 0.00 0.00 0.00 73 1008.9
20260504215508 18 33 0.0 3.2 0.00 0.00 0.00 72 1009.1
20260504215408 18 32 0.0 3.2 0.00 0.00 0.00 72 1009.0
20260504215329 18 31 1.6 3.2 0.00 0.00 0.00 72 1009.0
20260504215229 18 31 0.0 3.2 0.00 0.00 0.00 71 1009.0
20260504215108 18 29 1.6 3.2 0.00 0.00 0.00 71 1009.0
20260504215008 18 27 1.6 3.2 0.00 0.00 0.00 71 1009.2
20260504214929 18 28 1.6 3.2 0.00 0.00 0.00 70 1008.9
20260504214829 19 28 1.6 3.2 0.00 0.00 0.00 70 1009.1
20260504214708 19 29 1.6 3.2 0.00 0.00 0.00 69 1008.9
20260504214608 19 29 1.6 3.2 0.00 0.00 0.00 68 1009.2
20260504214529 19 28 0.0 3.2 0.00 0.00 0.00 68 1008.9
20260504214408 18 27 0.0 3.2 0.00 0.00 0.00 68 1008.9
20260504214308 18 26 1.6 3.2 0.00 0.00 0.00 67 1009.0
20260504214208 18 24 1.6 3.2 0.00 0.00 0.00 67 1009.0
20260504214108 18 24 1.6 3.2 0.00 0.00 0.00 67 1008.8
20260504214008 19 24 1.6 3.2 0.00 0.00 0.00 66 1008.9
20260504213929 19 24 1.6 3.2 0.00 0.00 0.00 66 1008.8
20260504213832 19 24 1.6 3.2 0.00 0.00 0.00 66 1009.0
20260504213708 19 22 0.0 3.2 0.00 0.00 0.00 65 1008.9
20260504213608 19 22 0.0 3.2 0.00 0.00 0.00 65 1008.8
20260504213529 19 22 1.6 3.2 0.00 0.00 0.00 65 1008.8
20260504213429 19 22 1.6 3.2 0.00 0.00 0.00 64 1008.8
20260504213308 19 22 1.6 3.2 0.00 0.00 0.00 63 1008.9
20260504213208 19 22 1.6 3.2 0.00 0.00 0.00 63 1008.8
20260504213108 19 22 1.6 3.2 0.00 0.00 0.00 63 1008.9
20260504213008 19 22 3.2 3.2 0.00 0.00 0.00 63 1008.8
20260504212907 19 22 3.2 3.2 0.00 0.00 0.00 63 1009.0
20260504212808 19 22 3.2 3.2 0.00 0.00 0.00 63 1008.8
20260504212707 20 22 3.2 3.2 0.00 0.00 0.00 63 1008.8
20260504212608 20 22 3.2 3.2 0.00 0.00 0.00 63 1008.9
20260504212507 20 22 3.2 3.2 0.00 0.00 0.00 63 1009.1
20260504212407 20 22 3.2 3.2 0.00 0.00 0.00 63 1008.9
20260504212308 20 22 1.6 3.2 0.00 0.00 0.00 63 1009.1
20260504212208 20 22 1.6 3.2 0.00 0.00 0.00 62 1009.0
20260504212108 20 22 1.6 3.2 0.00 0.00 0.00 62 1009.1
20260504212008 20 22 1.6 3.2 0.00 0.00 0.00 62 1009.1
20260504211908 20 22 3.2 3.2 0.00 0.00 0.00 61 1009.1
20260504211808 20 22 1.6 3.2 0.00 0.00 0.00 61 1009.1
20260504211729 20 22 3.2 3.2 0.00 0.00 0.00 61 1009.2
20260504211608 20 22 3.2 3.2 0.00 0.00 0.00 60 1009.0
20260504211508 20 22 1.6 3.2 0.00 0.00 0.00 60 1009.1
20260504211408 20 22 0.0 3.2 0.00 0.00 0.00 59 1009.1
20260504211308 20 22 1.6 3.2 0.00 0.00 0.00 59 1009.1
20260504211207 20 22 3.2 3.2 0.00 0.00 0.00 59 1009.0
20260504211108 20 22 3.2 3.2 0.00 0.00 0.00 59 1009.0
20260504211008 20 22 1.6 3.2 0.00 0.00 0.00 58 1009.0
20260504210908 20 22 1.6 3.2 0.00 0.00 0.00 58 1009.1
20260504210808 20 22 1.6 3.2 0.00 0.00 0.00 58 1009.1
20260504210707 20 22 1.6 3.2 0.00 0.00 0.00 58 1009.2
20260504210607 20 22 1.6 3.2 0.00 0.00 0.00 57 1009.2
20260504210508 20 22 1.6 3.2 0.00 0.00 0.00 57 1009.0
20260504210408 21 22 3.2 3.2 0.00 0.00 0.00 57 1009.0
20260504210308 21 22 3.2 3.2 0.00 0.00 0.00 57 1009.0
20260504210208 21 22 3.2 3.2 0.00 0.00 0.00 57 1009.1
20260504210108 21 22 1.6 3.2 0.00 0.00 0.00 57 1009.1
20260504210008 21 22 3.2 3.2 0.00 0.00 0.00 57 1009.1
20260504205908 21 22 3.2 3.2 0.00 0.00 0.00 56 1009.3
20260504205808 21 22 1.6 3.2 0.00 0.00 0.00 56 1009.2
20260504205708 21 22 3.2 3.2 0.00 0.00 0.00 56 1009.2
20260504205630 21 22 1.6 3.2 0.00 0.00 0.00 56 1009.2
20260504205508 21 22 1.6 3.2 0.00 0.00 0.00 55 1009.2
20260504205408 21 22 1.6 3.2 0.00 0.00 0.00 55 1009.2
20260504205308 21 22 1.6 3.2 0.00 0.00 0.00 55 1009.4
20260504205208 21 22 1.6 3.2 0.00 0.00 0.00 55 1009.5
20260504205108 21 22 1.6 3.2 0.00 0.00 0.00 55 1009.2
20260504205008 21 22 1.6 3.2 0.00 0.00 0.00 55 1009.3
20260504204908 21 22 1.6 3.2 0.00 0.00 0.00 55 1009.2
20260504204808 21 22 1.6 3.2 0.00 0.00 0.00 54 1009.2
20260504204707 21 22 3.2 3.2 0.00 0.00 0.00 54 1009.3
20260504204608 21 22 1.6 3.2 0.00 0.00 0.00 54 1009.4
20260504204507 21 22 0.0 3.2 0.00 0.00 0.00 54 1009.3
20260504204408 21 22 1.6 3.2 0.00 0.00 0.00 54 1009.2
20260504204308 21 22 3.2 3.2 0.00 0.00 0.00 54 1009.2
20260504204208 21 22 3.2 3.2 0.00 0.00 0.00 55 1009.3
20260504204108 21 22 1.6 3.2 0.00 0.00 0.00 55 1009.2
20260504204030 22 20 3.2 3.2 0.00 0.00 0.00 54 1009.3
20260504203908 22 20 1.6 3.2 0.00 0.00 0.00 54 1009.3
20260504203808 22 18 1.6 3.2 0.00 0.00 0.00 53 1009.2
20260504203708 22 19 1.6 6.4 0.00 0.00 0.00 54 1009.1
20260504203608 22 16 1.6 6.4 0.00 0.00 0.00 54 1009.1
20260504203508 22 15 1.6 6.4 0.00 0.00 0.00 54 1009.1
20260504203408 22 13 1.6 6.4 0.00 0.00 0.00 53 1009.1
20260504203308 22 13 1.6 6.4 0.00 0.00 0.00 53 1009.0
20260504203208 22 10 1.6 6.4 0.00 0.00 0.00 53 1009.0
20260504203108 22 7 1.6 6.4 0.00 0.00 0.00 54 1009.2
20260504203008 22 6 3.2 6.4 0.00 0.00 0.00 53 1009.1
20260504202928 22 5 3.2 6.4 0.00 0.00 0.00 53 1009.1
20260504202808 22 4 3.2 6.4 0.00 0.00 0.00 53 1009.1
20260504202729 22 4 3.2 6.4 0.00 0.00 0.00 53 1009.1
20260504202608 22 6 3.2 6.4 0.00 0.00 0.00 52 1009.1
20260504202508 22 4 3.2 6.4 0.00 0.00 0.00 53 1009.1
20260504202408 22 3 3.2 6.4 0.00 0.00 0.00 53 1009.1
20260504202307 22 2 3.2 6.4 0.00 0.00 0.00 53 1009.0
20260504202229 22 2 3.2 9.7 0.00 0.00 0.00 53 1009.0
20260504202129 22 5 3.2 9.7 0.00 0.00 0.00 53 1009.0
20260504202007 22 7 3.2 9.7 0.00 0.00 0.00 53 1008.9
20260504201908 22 6 3.2 9.7 0.00 0.00 0.00 53 1009.1
20260504201829 22 6 3.2 9.7 0.00 0.00 0.00 53 1009.1
20260504201708 22 8 4.8 9.7 0.00 0.00 0.00 52 1009.0
20260504201608 22 7 4.8 9.7 0.00 0.00 0.00 53 1009.0
20260504201508 22 9 3.2 9.7 0.00 0.00 0.00 53 1009.0
20260504201408 22 12 4.8 9.7 0.00 0.00 0.00 52 1009.0
20260504201329 22 14 4.8 9.7 0.00 0.00 0.00 52 1009.1
20260504201208 22 18 4.8 9.7 0.00 0.00 0.00 53 1009.0
20260504201108 22 18 3.2 9.7 0.00 0.00 0.00 53 1008.9
20260504201007 22 17 4.8 9.7 0.00 0.00 0.00 52 1009.1
20260504200929 22 18 3.2 9.7 0.00 0.00 0.00 54 1009.0
20260504200808 22 21 3.2 9.7 0.00 0.00 0.00 54 1009.0
20260504200708 22 18 4.8 9.7 0.00 0.00 0.00 54 1008.9
20260504200607 22 19 6.4 9.7 0.00 0.00 0.00 53 1008.9
20260504200508 22 19 4.8 9.7 0.00 0.00 0.00 53 1009.0
20260504200408 22 20 4.8 9.7 0.00 0.00 0.00 53 1009.1
20260504200308 22 19 3.2 9.7 0.00 0.00 0.00 54 1008.9
20260504200229 22 17 3.2 9.7 0.00 0.00 0.00 54 1008.9
20260504200107 22 14 3.2 9.7 0.00 0.00 0.00 53 1009.1
20260504200008 22 14 3.2 9.7 0.00 0.00 0.00 53 1009.0
20260504195907 22 13 3.2 9.7 0.00 0.00 0.00 52 1009.1
20260504195807 22 14 4.8 9.7 0.00 0.00 0.00 52 1009.1
20260504195707 22 16 4.8 9.7 0.00 0.00 0.00 53 1009.0
20260504195607 22 17 6.4 9.7 0.00 0.00 0.00 52 1009.0
20260504195507 22 17 4.8 6.4 0.00 0.00 0.00 53 1009.0
20260504195429 22 16 4.8 6.4 0.00 0.00 0.00 53 1009.0
20260504195307 22 12 3.2 6.4 0.00 0.00 0.00 52 1009.2
20260504195207 22 11 3.2 9.7 0.00 0.00 0.00 53 1009.3
20260504195107 22 6 4.8 9.7 0.00 0.00 0.00 52 1009.1
20260504195029 22 4 4.8 11.3 0.00 0.00 0.00 52 1009.1
20260504194907 22 2 3.2 11.3 0.00 0.00 0.00 53 1009.1
20260504194807 22 1 3.2 11.3 0.00 0.00 0.00 53 1009.1
20260504194708 22 360 3.2 11.3 0.00 0.00 0.00 53 1009.2
20260504194608 22 360 4.8 11.3 0.00 0.00 0.00 53 1009.3
20260504194507 22 360 4.8 11.3 0.00 0.00 0.00 53 1009.2
20260504194407 22 357 4.8 11.3 0.00 0.00 0.00 52 1009.3
20260504194307 22 356 4.8 11.3 0.00 0.00 0.00 52 1009.2
20260504194208 22 355 6.4 11.3 0.00 0.00 0.00 51 1009.2
20260504194107 22 357 4.8 11.3 0.00 0.00 0.00 52 1009.3
20260504194007 22 2 6.4 11.3 0.00 0.00 0.00 52 1009.2
20260504193908 22 1 4.8 11.3 0.00 0.00 0.00 53 1009.3
20260504193807 22 359 4.8 11.3 0.00 0.00 0.00 52 1009.3
20260504193728 22 360 4.8 11.3 0.00 0.00 0.00 52 1009.3
20260504193607 22 357 4.8 11.3 0.00 0.00 0.00 52 1009.1
20260504193507 22 351 4.8 11.3 0.00 0.00 0.00 52 1009.3
20260504193407 22 349 4.8 11.3 0.00 0.00 0.00 51 1009.3
20260504193308 22 349 4.8 12.9 0.00 0.00 0.00 51 1009.1
20260504193207 22 345 4.8 14.5 0.00 0.00 0.00 51 1009.4
20260504193129 22 344 3.2 14.5 0.00 0.00 0.00 51 1009.3
20260504193008 22 341 3.2 14.5 0.00 0.00 0.00 52 1009.4
20260504192907 22 343 3.2 14.5 0.00 0.00 0.00 52 1009.3
20260504192807 22 342 4.8 14.5 0.00 0.00 0.00 51 1009.3
20260504192708 22 339 3.2 14.5 0.00 0.00 0.00 52 1009.4
20260504192628 22 338 3.2 14.5 0.00 0.00 0.00 52 1009.4
20260504192529 22 336 6.4 14.5 0.00 0.00 0.00 51 1009.4
20260504192408 22 335 8.0 14.5 0.00 0.00 0.00 50 1009.5
20260504192328 22 334 6.4 14.5 0.00 0.00 0.00 50 1009.3
20260504192207 22 338 6.4 14.5 0.00 0.00 0.00 51 1009.3
20260504192107 22 340 3.2 14.5 0.00 0.00 0.00 52 1009.3
20260504192008 22 340 4.8 14.5 0.00 0.00 0.00 51 1009.3
20260504191928 22 340 4.8 14.5 0.00 0.00 0.00 51 1009.2
20260504191807 22 342 4.8 14.5 0.00 0.00 0.00 52 1009.2
20260504191730 22 342 3.2 14.5 0.00 0.00 0.00 52 1009.2
20260504191608 22 344 6.4 14.5 0.00 0.00 0.00 51 1009.3
20260504191508 22 346 8.0 12.9 0.00 0.00 0.00 51 1009.5
20260504191408 22 348 6.4 12.9 0.00 0.00 0.00 52 1009.5
20260504191308 22 352 6.4 12.9 0.00 0.00 0.00 51 1009.4
20260504191208 22 353 4.8 12.9 0.00 0.00 0.00 51 1009.3
20260504191107 22 353 3.2 12.9 0.00 0.00 0.00 52 1009.4
20260504191007 22 353 6.4 12.9 0.00 0.00 0.00 51 1009.4
20260504190907 22 351 6.4 12.9 0.00 0.00 0.00 51 1009.4
20260504190807 22 348 6.4 12.9 0.00 0.00 0.00 50 1009.5
20260504190707 22 350 4.8 9.7 0.00 0.00 0.00 51 1009.3
20260504190607 22 351 6.4 9.7 0.00 0.00 0.00 51 1009.4
20260504190507 22 350 4.8 9.7 0.00 0.00 0.00 50 1009.4
20260504190407 22 353 3.2 12.9 0.00 0.00 0.00 51 1009.2
20260504190307 22 352 3.2 12.9 0.00 0.00 0.00 50 1009.5
20260504190207 22 352 4.8 12.9 0.00 0.00 0.00 51 1009.4
20260504190107 22 352 4.8 12.9 0.00 0.00 0.00 51 1009.4
20260504190008 22 348 4.8 12.9 0.00 0.00 0.00 51 1009.5
20260504185907 22 350 3.2 12.9 0.00 0.00 0.00 52 1009.4
20260504185808 22 350 4.8 12.9 0.00 0.00 0.00 51 1009.5
20260504185707 22 349 4.8 12.9 0.00 0.00 0.00 51 1009.4
20260504185608 22 349 4.8 12.9 0.00 0.00 0.00 51 1009.5
20260504185508 22 349 6.4 12.9 0.00 0.00 0.00 50 1009.5
20260504185408 22 346 8.0 12.9 0.00 0.00 0.00 50 1009.6
20260504185308 22 345 6.4 12.9 0.00 0.00 0.00 50 1009.7
20260504185208 22 342 6.4 12.9 0.00 0.00 0.00 50 1009.4
20260504185130 22 343 6.4 12.9 0.00 0.00 0.00 51 1009.4
20260504185008 22 346 4.8 14.5 0.00 0.00 0.00 50 1009.5
20260504184908 22 347 4.8 14.5 0.00 0.00 0.00 50 1009.3
20260504184829 22 350 6.4 14.5 0.00 0.00 0.00 50 1009.5
20260504184708 22 351 3.2 14.5 0.00 0.00 0.00 51 1009.3
20260504184629 22 351 3.2 14.5 0.00 0.00 0.00 51 1009.3
20260504184508 22 350 3.2 14.5 0.00 0.00 0.00 51 1009.4
20260504184408 22 353 3.2 14.5 0.00 0.00 0.00 51 1009.3
20260504184329 22 355 3.2 14.5 0.00 0.00 0.00 51 1009.4
20260504184208 22 359 8.0 14.5 0.00 0.00 0.00 51 1009.4
20260504184129 22 1 6.4 14.5 0.00 0.00 0.00 51 1009.4
20260504184008 22 3 8.0 14.5 0.00 0.00 0.00 51 1009.2
20260504183908 22 356 4.8 12.9 0.00 0.00 0.00 52 1009.4
20260504183807 22 350 6.4 14.5 0.00 0.00 0.00 52 1009.4
20260504183707 22 350 6.4 14.5 0.00 0.00 0.00 51 1009.3
20260504183608 22 347 4.8 14.5 0.00 0.00 0.00 51 1009.4
20260504183507 22 344 3.2 14.5 0.00 0.00 0.00 53 1009.4
20260504183408 22 342 3.2 14.5 0.00 0.00 0.00 53 1009.3
20260504183308 22 341 3.2 14.5 0.00 0.00 0.00 53 1009.4
20260504183229 22 340 4.8 14.5 0.00 0.00 0.00 53 1009.3
20260504183107 22 335 6.4 14.5 0.00 0.00 0.00 52 1009.4
20260504183008 22 336 9.7 14.5 0.00 0.00 0.00 51 1009.5
20260504182908 22 339 9.7 14.5 0.00 0.00 0.00 51 1009.6
20260504182808 22 340 11.3 14.5 0.00 0.00 0.00 52 1009.6
20260504182729 22 342 4.8 11.3 0.00 0.00 0.00 52 1009.6
20260504182608 22 343 4.8 11.3 0.00 0.00 0.00 53 1009.6
20260504182507 22 346 4.8 11.3 0.00 0.00 0.00 53 1009.6
20260504182408 22 345 4.8 11.3 0.00 0.00 0.00 53 1009.6
20260504182308 22 342 6.4 11.3 0.00 0.00 0.00 54 1009.7
20260504182208 22 343 8.0 11.3 0.00 0.00 0.00 53 1009.6
20260504182129 22 344 8.0 11.3 0.00 0.00 0.00 52 1009.4
20260504182008 22 341 6.4 11.3 0.00 0.00 0.00 52 1009.7
20260504181908 22 340 3.2 11.3 0.00 0.00 0.00 53 1009.8
20260504181829 22 340 3.2 12.9 0.00 0.00 0.00 53 1009.8
20260504181708 22 334 3.2 12.9 0.00 0.00 0.00 54 1009.8
20260504181629 22 334 4.8 12.9 0.00 0.00 0.00 53 1009.8
20260504181507 22 333 6.4 14.5 0.00 0.00 0.00 52 1009.9
20260504181407 22 334 6.4 14.5 0.00 0.00 0.00 52 1009.9
20260504181329 22 335 6.4 14.5 0.00 0.00 0.00 52 1009.7
20260504181208 22 336 6.4 14.5 0.00 0.00 0.00 52 1009.8
20260504181108 22 333 3.2 14.5 0.00 0.00 0.00 53 1009.7
20260504181008 22 332 4.8 14.5 0.00 0.00 0.00 52 1009.8
20260504180929 22 330 6.4 14.5 0.00 0.00 0.00 53 1010.0
20260504180829 22 330 6.4 14.5 0.00 0.00 0.00 52 1009.8
20260504180708 22 335 6.4 14.5 0.00 0.00 0.00 52 1009.9
20260504180608 22 335 3.2 14.5 0.00 0.00 0.00 52 1010.0
20260504180508 22 338 6.4 14.5 0.00 0.00 0.00 53 1010.0
20260504180407 22 338 4.8 14.5 0.00 0.00 0.00 52 1010.1
20260504180308 22 338 3.2 14.5 0.00 0.00 0.00 52 1010.0
20260504180229 22 338 3.2 14.5 0.00 0.00 0.00 52 1010.0
20260504180108 22 348 6.4 14.5 0.00 0.00 0.00 52 1010.0
20260504180008 22 348 4.8 14.5 0.00 0.00 0.00 52 1010.1
20260504175908 21 350 3.2 14.5 0.00 0.00 0.00 54 1010.1
20260504175829 21 350 3.2 14.5 0.00 0.00 0.00 54 1010.1
20260504175707 21 348 4.8 14.5 0.00 0.00 0.00 54 1010.0
20260504175629 21 351 6.4 14.5 0.00 0.00 0.00 54 1010.0
20260504175529 21 346 4.8 14.5 0.00 0.00 0.00 54 1010.1
20260504175408 21 342 8.0 12.9 0.00 0.00 0.00 53 1010.2
20260504175308 21 344 6.4 12.9 0.00 0.00 0.00 53 1010.1
20260504175208 21 341 9.7 17.7 0.00 0.00 0.00 52 1010.1
20260504175107 21 337 6.4 17.7 0.00 0.00 0.00 53 1010.1
20260504175007 21 343 6.4 17.7 0.00 0.00 0.00 53 1010.2
20260504174907 21 342 6.4 17.7 0.00 0.00 0.00 53 1010.3
20260504174808 21 342 6.4 17.7 0.00 0.00 0.00 53 1010.1
20260504174708 21 342 4.8 17.7 0.00 0.00 0.00 54 1010.2
20260504174608 21 338 6.4 17.7 0.00 0.00 0.00 54 1010.1
20260504174508 21 339 9.7 17.7 0.00 0.00 0.00 53 1010.2
20260504174429 21 341 8.0 17.7 0.00 0.00 0.00 54 1010.0
20260504174329 21 343 6.4 17.7 0.00 0.00 0.00 54 1010.2
20260504174207 21 343 9.7 17.7 0.00 0.00 0.00 54 1010.4
20260504174108 21 342 6.4 14.5 0.00 0.00 0.00 54 1010.4
20260504174008 21 341 9.7 14.5 0.00 0.00 0.00 53 1010.2
20260504173908 21 343 8.0 12.9 0.00 0.00 0.00 53 1010.3
20260504173807 21 341 8.0 12.9 0.00 0.00 0.00 52 1010.3
20260504173729 21 340 6.4 12.9 0.00 0.00 0.00 53 1010.3
20260504173608 21 344 9.7 12.9 0.00 0.00 0.00 52 1010.2